Observation data for Odell on 11/17/2019      Previous  Date       Current Mesonet Observations  Soil Data  Daily Summary Page  Observations in Plain Language
KOD1 170600Z 14009KT 09/02 A30 RMK A01 T00900017  RH  060%=      5-min Rain = 0
KOD1 170601Z 14008KT 09/02 A30 RMK A01 T00900017  RH  060%=      5-min Rain = 0
KOD1 170602Z 14009KT 09/02 A30 RMK A01 T00900017  RH  060%=      5-min Rain = 0
KOD1 170603Z 14009KT 09/02 A30 RMK A01 T00900017  RH  060%=      5-min Rain = 0
KOD1 170604Z 14009KT 09/02 A2999 RMK A01 T00900017  RH  060%=      5-min Rain = 0
KOD1 170605Z 14010KT 09/02 A2999 RMK A01 T00900017  RH  060%=      5-min Rain = 0
KOD1 170606Z 14009KT 09/02 A2999 RMK A01 T00890017  RH  060%=      5-min Rain = 0
KOD1 170607Z 14009KT 09/02 A2999 RMK A01 T00890017  RH  061%=      5-min Rain = 0
KOD1 170608Z 14009KT 09/02 A2999 RMK A01 T00890017  RH  061%=      5-min Rain = 0
KOD1 170609Z 13009KT 09/02 A2999 RMK A01 T00890017  RH  061%=      5-min Rain = 0
KOD1 170610Z 14009KT 09/02 A2999 RMK A01 T00890017  RH  060%=      5-min Rain = 0
KOD1 170611Z 14010KT 09/02 A2999 RMK A01 T00900017  RH  060%=      5-min Rain = 0
KOD1 170612Z 14010KT 09/02 A2999 RMK A01 T00910017  RH  060%=      5-min Rain = 0
KOD1 170613Z 14009KT 09/02 A2999 RMK A01 T00910017  RH  060%=      5-min Rain = 0
KOD1 170614Z 14009KT 09/02 A2999 RMK A01 T00910017  RH  060%=      5-min Rain = 0
KOD1 170615Z 14010KT 09/02 A2999 RMK A01 T00900017  RH  060%=      5-min Rain = 0
KOD1 170616Z 14009KT 09/02 A2999 RMK A01 T00900017  RH  060%=      5-min Rain = 0
KOD1 170617Z 14009KT 09/02 A2999 RMK A01 T00890017  RH  060%=      5-min Rain = 0
KOD1 170618Z 13008KT 09/02 A2999 RMK A01 T00890017  RH  061%=      5-min Rain = 0
KOD1 170619Z 14009KT 09/02 A2999 RMK A01 T00890017  RH  061%=      5-min Rain = 0
KOD1 170620Z 13009KT 09/02 A2999 RMK A01 T00890017  RH  061%=      5-min Rain = 0
KOD1 170621Z 13008KT 09/02 A2999 RMK A01 T00880017  RH  061%=      5-min Rain = 0
KOD1 170622Z 13009KT 09/02 A2999 RMK A01 T00870017  RH  061%=      5-min Rain = 0
KOD1 170623Z 14009KT 09/02 A2999 RMK A01 T00870017  RH  061%=      5-min Rain = 0
KOD1 170624Z 13009KT 09/02 A2999 RMK A01 T00880017  RH  061%=      5-min Rain = 0
KOD1 170625Z 13009KT 09/02 A2999 RMK A01 T00870017  RH  061%=      5-min Rain = 0
KOD1 170626Z 13009KT 09/02 A2999 RMK A01 T00880017  RH  061%=      5-min Rain = 0
KOD1 170627Z 13009KT 09/02 A2999 RMK A01 T00870017  RH  061%=      5-min Rain = 0
KOD1 170628Z 13009KT 09/02 A2999 RMK A01 T00880017  RH  061%=      5-min Rain = 0
KOD1 170629Z 13010KT 09/02 A2999 RMK A01 T00870017  RH  061%=      5-min Rain = 0
KOD1 170630Z 13009KT 09/02 A2999 RMK A01 T00870017  RH  061%=      5-min Rain = 0
KOD1 170631Z 13009KT 09/02 A2999 RMK A01 T00870017  RH  061%=      5-min Rain = 0
KOD1 170632Z 13009KT 09/02 A2999 RMK A01 T00870017  RH  062%=      5-min Rain = 0
KOD1 170633Z 13010KT 09/02 A2999 RMK A01 T00870017  RH  061%=      5-min Rain = 0
KOD1 170634Z 13009KT 09/02 A2999 RMK A01 T00880017  RH  061%=      5-min Rain = 0
KOD1 170635Z 13008KT 09/02 A2999 RMK A01 T00880017  RH  061%=      5-min Rain = 0
KOD1 170636Z 13009KT 09/02 A2999 RMK A01 T00890017  RH  061%=      5-min Rain = 0
KOD1 170637Z 13008KT 09/02 A2999 RMK A01 T00890017  RH  061%=      5-min Rain = 0
KOD1 170638Z 13009KT 09/02 A2999 RMK A01 T00880017  RH  061%=      5-min Rain = 0
KOD1 170639Z 13008KT 09/02 A2999 RMK A01 T00880017  RH  061%=      5-min Rain = 0
KOD1 170640Z 13009KT 09/02 A2999 RMK A01 T00880017  RH  061%=      5-min Rain = 0
KOD1 170641Z 13008KT 09/02 A2999 RMK A01 T00880017  RH  061%=      5-min Rain = 0
KOD1 170642Z 13009KT 09/02 A30 RMK A01 T00880017  RH  061%=      5-min Rain = 0
KOD1 170643Z 14008KT 09/02 A30 RMK A01 T00880017  RH  061%=      5-min Rain = 0
KOD1 170644Z 14008KT 09/02 A30 RMK A01 T00880017  RH  061%=      5-min Rain = 0
KOD1 170645Z 13008KT 09/02 A30 RMK A01 T00880017  RH  061%=      5-min Rain = 0
KOD1 170646Z 13008KT 09/02 A30 RMK A01 T00880017  RH  061%=      5-min Rain = 0
KOD1 170647Z 13008KT 09/02 A30 RMK A01 T00880017  RH  061%=      5-min Rain = 0
KOD1 170648Z 13009KT 09/02 A30 RMK A01 T00870017  RH  061%=      5-min Rain = 0
KOD1 170649Z 13008KT 09/02 A30 RMK A01 T00870017  RH  061%=      5-min Rain = 0
KOD1 170650Z 14008KT 09/02 A30 RMK A01 T00870017  RH  061%=      5-min Rain = 0
KOD1 170651Z 13007KT 09/02 A30 RMK A01 T00870017  RH  061%=      5-min Rain = 0
KOD1 170652Z 13007KT 09/02 A30 RMK A01 T00870017  RH  062%=      5-min Rain = 0
KOD1 170653Z 13007KT 09/02 A30 RMK A01 T00870017  RH  062%=      5-min Rain = 0
KOD1 170654Z 13007KT 09/02 A30 RMK A01 T00860017  RH  062%=      5-min Rain = 0
KOD1 170655Z 13008KT 09/02 A30 RMK A01 T00860018  RH  062%=      5-min Rain = 0
KOD1 170656Z 13009KT 09/02 A2999 RMK A01 T00860017  RH  062%=      5-min Rain = 0
KOD1 170657Z 13008KT 09/02 A2999 RMK A01 T00860017  RH  062%=      5-min Rain = 0
KOD1 170658Z 13008KT 09/02 A2999 RMK A01 T00860017  RH  062%=      5-min Rain = 0
KOD1 170659Z 13008KT 09/02 A2999 RMK A01 T00860017  RH  062%=      5-min Rain = 0
KOD1 170700Z 13008KT 09/02 A2999 RMK A01 T00860017  RH  062%=      5-min Rain = 0
KOD1 170701Z 12008KT 09/02 A2999 RMK A01 T00870017  RH  061%=      5-min Rain = 0
KOD1 170702Z 13007KT 09/02 A2999 RMK A01 T00870017  RH  061%=      5-min Rain = 0
KOD1 170703Z 13008KT 09/02 A2999 RMK A01 T00870017  RH  061%=      5-min Rain = 0
KOD1 170704Z 13007KT 09/02 A2999 RMK A01 T00870017  RH  061%=      5-min Rain = 0
KOD1 170705Z 13007KT 09/02 A2999 RMK A01 T00880017  RH  061%=      5-min Rain = 0
KOD1 170706Z 13007KT 09/02 A2999 RMK A01 T00870017  RH  061%=      5-min Rain = 0
KOD1 170707Z 12008KT 09/02 A2999 RMK A01 T00860017  RH  062%=      5-min Rain = 0
KOD1 170708Z 12007KT 09/02 A2999 RMK A01 T00870017  RH  061%=      5-min Rain = 0
KOD1 170709Z 12007KT 09/02 A2999 RMK A01 T00870017  RH  061%=      5-min Rain = 0
KOD1 170710Z 12007KT 09/02 A2999 RMK A01 T00860016  RH  062%=      5-min Rain = 0
KOD1 170711Z 13008KT 09/02 A2999 RMK A01 T00860017  RH  062%=      5-min Rain = 0
KOD1 170712Z 13007KT 09/02 A2999 RMK A01 T00850017  RH  062%=      5-min Rain = 0
KOD1 170713Z 13008KT 09/02 A2999 RMK A01 T00850017  RH  062%=      5-min Rain = 0
KOD1 170714Z 13008KT 09/02 A2999 RMK A01 T00850016  RH  062%=      5-min Rain = 0
KOD1 170715Z 13009KT 09/02 A2999 RMK A01 T00850017  RH  062%=      5-min Rain = 0
KOD1 170716Z 13008KT 09/02 A2999 RMK A01 T00850016  RH  062%=      5-min Rain = 0
KOD1 170717Z 13008KT 09/02 A2999 RMK A01 T00850017  RH  062%=      5-min Rain = 0
KOD1 170718Z 13008KT 09/02 A2999 RMK A01 T00850017  RH  062%=      5-min Rain = 0
KOD1 170719Z 13007KT 08/02 A2999 RMK A01 T00840016  RH  062%=      5-min Rain = 0
KOD1 170720Z 13007KT 08/02 A2999 RMK A01 T00840016  RH  063%=      5-min Rain = 0
KOD1 170721Z 13008KT 08/02 A2999 RMK A01 T00840017  RH  063%=      5-min Rain = 0
KOD1 170722Z 13007KT 08/02 A2999 RMK A01 T00840016  RH  063%=      5-min Rain = 0
KOD1 170723Z 13007KT 08/02 A2999 RMK A01 T00840016  RH  063%=      5-min Rain = 0
KOD1 170724Z 12008KT 08/02 A2999 RMK A01 T00840016  RH  063%=      5-min Rain = 0
KOD1 170725Z 13009KT 08/02 A2999 RMK A01 T00840016  RH  063%=      5-min Rain = 0
KOD1 170726Z 13008KT 08/02 A2999 RMK A01 T00840016  RH  063%=      5-min Rain = 0
KOD1 170727Z 12009KT 08/02 A2999 RMK A01 T00840017  RH  063%=      5-min Rain = 0
KOD1 170728Z 13008KT 08/02 A2999 RMK A01 T00830017  RH  063%=      5-min Rain = 0
KOD1 170729Z 13008KT 08/02 A2999 RMK A01 T00830017  RH  063%=      5-min Rain = 0
KOD1 170730Z 13008KT 08/02 A2999 RMK A01 T00830017  RH  063%=      5-min Rain = 0
KOD1 170731Z 12009KT 08/02 A2999 RMK A01 T00830017  RH  063%=      5-min Rain = 0
KOD1 170732Z 12008KT 08/02 A2999 RMK A01 T00830017  RH  063%=      5-min Rain = 0
KOD1 170733Z 13008KT 08/02 A2998 RMK A01 T00820016  RH  063%=      5-min Rain = 0
KOD1 170734Z 12008KT 08/02 A2998 RMK A01 T00820016  RH  063%=      5-min Rain = 0
KOD1 170735Z 12009KT 08/02 A2998 RMK A01 T00810016  RH  064%=      5-min Rain = 0
KOD1 170736Z 12008KT 08/02 A2998 RMK A01 T00800016  RH  064%=      5-min Rain = 0
KOD1 170737Z 13009KT 08/02 A2998 RMK A01 T00800016  RH  064%=      5-min Rain = 0
KOD1 170738Z 12009KT 08/02 A2998 RMK A01 T00790016  RH  064%=      5-min Rain = 0
KOD1 170739Z 12009KT 08/02 A2998 RMK A01 T00790016  RH  064%=      5-min Rain = 0
KOD1 170740Z 12010KT 08/02 A2998 RMK A01 T00780016  RH  065%=      5-min Rain = 0
KOD1 170741Z 12009KT 08/02 A2997 RMK A01 T00780016  RH  065%=      5-min Rain = 0
KOD1 170742Z 12010KT 08/02 A2997 RMK A01 T00780016  RH  065%=      5-min Rain = 0
KOD1 170743Z 12009KT 08/02 A2997 RMK A01 T00780016  RH  065%=      5-min Rain = 0
KOD1 170744Z 12009KT 08/02 A2997 RMK A01 T00770016  RH  065%=      5-min Rain = 0
KOD1 170745Z 12009KT 08/02 A2998 RMK A01 T00770016  RH  065%=      5-min Rain = 0
KOD1 170746Z 12009KT 08/02 A2998 RMK A01 T00750016  RH  066%=      5-min Rain = 0
KOD1 170747Z 12009KT 08/02 A2998 RMK A01 T00750016  RH  066%=      5-min Rain = 0
KOD1 170748Z 12009KT 07/02 A2998 RMK A01 T00740016  RH  067%=      5-min Rain = 0
KOD1 170749Z 12008KT 07/02 A2997 RMK A01 T00740016  RH  067%=      5-min Rain = 0
KOD1 170750Z 13008KT 07/02 A2997 RMK A01 T00730016  RH  067%=      5-min Rain = 0
KOD1 170751Z 13009KT 07/02 A2997 RMK A01 T00730016  RH  067%=      5-min Rain = 0
KOD1 170752Z 13009KT 07/02 A2997 RMK A01 T00720016  RH  067%=      5-min Rain = 0
KOD1 170753Z 13010KT 07/02 A2997 RMK A01 T00720016  RH  068%=      5-min Rain = 0
KOD1 170754Z 13010KT 07/02 A2997 RMK A01 T00710016  RH  068%=      5-min Rain = 0
KOD1 170755Z 13009KT 07/02 A2997 RMK A01 T00710016  RH  068%=      5-min Rain = 0
KOD1 170756Z 12011KT 07/02 A2997 RMK A01 T00710016  RH  068%=      5-min Rain = 0
KOD1 170757Z 12010KT 07/02 A2997 RMK A01 T00710017  RH  068%=      5-min Rain = 0
KOD1 170758Z 12010KT 07/02 A2997 RMK A01 T00710017  RH  068%=      5-min Rain = 0
KOD1 170759Z 12010KT 07/02 A2997 RMK A01 T00710016  RH  068%=      5-min Rain = 0
KOD1 170800Z 12010KT 07/02 A2997 RMK A01 T00710017  RH  068%=      5-min Rain = 0
KOD1 170801Z 12010KT 07/02 A2997 RMK A01 T00710017  RH  068%=      5-min Rain = 0
KOD1 170802Z 12010KT 07/02 A2997 RMK A01 T00710016  RH  068%=      5-min Rain = 0
KOD1 170803Z 12009KT 07/02 A2997 RMK A01 T00700016  RH  068%=      5-min Rain = 0
KOD1 170804Z 13008KT 07/02 A2997 RMK A01 T00700016  RH  068%=      5-min Rain = 0
KOD1 170805Z 13010KT 07/02 A2997 RMK A01 T00700016  RH  069%=      5-min Rain = 0
KOD1 170806Z 12009KT 07/02 A2997 RMK A01 T00700016  RH  069%=      5-min Rain = 0
KOD1 170807Z 13008KT 07/02 A2997 RMK A01 T00690016  RH  069%=      5-min Rain = 0
KOD1 170808Z 12009KT 07/02 A2997 RMK A01 T00690016  RH  069%=      5-min Rain = 0
KOD1 170809Z 13009KT 07/02 A2997 RMK A01 T00690016  RH  069%=      5-min Rain = 0
KOD1 170810Z 13009KT 07/02 A2997 RMK A01 T00680016  RH  069%=      5-min Rain = 0
KOD1 170811Z 13009KT 07/02 A2997 RMK A01 T00690016  RH  069%=      5-min Rain = 0
KOD1 170812Z 13008KT 07/02 A2997 RMK A01 T00690016  RH  069%=      5-min Rain = 0
KOD1 170813Z 13008KT 07/02 A2997 RMK A01 T00680016  RH  069%=      5-min Rain = 0
KOD1 170814Z 13008KT 07/02 A2997 RMK A01 T00680016  RH  070%=      5-min Rain = 0
KOD1 170815Z 13008KT 07/02 A2997 RMK A01 T00680017  RH  070%=      5-min Rain = 0
KOD1 170816Z 13008KT 07/02 A2997 RMK A01 T00680016  RH  070%=      5-min Rain = 0
KOD1 170817Z 13009KT 07/02 A2997 RMK A01 T00680016  RH  070%=      5-min Rain = 0
KOD1 170818Z 13010KT 07/02 A2997 RMK A01 T00680017  RH  070%=      5-min Rain = 0
KOD1 170819Z 13009KT 07/02 A2997 RMK A01 T00690016  RH  069%=      5-min Rain = 0
KOD1 170820Z 13009KT 07/02 A2997 RMK A01 T00690016  RH  069%=      5-min Rain = 0
KOD1 170821Z 13009KT 07/02 A2997 RMK A01 T00680016  RH  069%=      5-min Rain = 0
KOD1 170822Z 13009KT 07/02 A2997 RMK A01 T00680016  RH  069%=      5-min Rain = 0
KOD1 170823Z 13009KT 07/02 A2997 RMK A01 T00680016  RH  069%=      5-min Rain = 0
KOD1 170824Z 13008KT 07/02 A2996 RMK A01 T00680016  RH  069%=      5-min Rain = 0
KOD1 170825Z 13008KT 07/02 A2996 RMK A01 T00680016  RH  069%=      5-min Rain = 0
KOD1 170826Z 13008KT 07/02 A2996 RMK A01 T00680016  RH  069%=      5-min Rain = 0
KOD1 170827Z 12008KT 07/02 A2997 RMK A01 T00680016  RH  070%=      5-min Rain = 0
KOD1 170828Z 12007KT 07/02 A2997 RMK A01 T00670016  RH  070%=      5-min Rain = 0
KOD1 170829Z 13006KT 07/02 A2997 RMK A01 T00670016  RH  070%=      5-min Rain = 0
KOD1 170830Z 13007KT 07/02 A2997 RMK A01 T00660016  RH  070%=      5-min Rain = 0
KOD1 170831Z 13008KT 07/02 A2997 RMK A01 T00660016  RH  070%=      5-min Rain = 0
KOD1 170832Z 13007KT 07/02 A2997 RMK A01 T00660016  RH  070%=      5-min Rain = 0
KOD1 170833Z 13008KT 07/02 A2997 RMK A01 T00660016  RH  070%=      5-min Rain = 0
KOD1 170834Z 13006KT 07/02 A2997 RMK A01 T00660016  RH  070%=      5-min Rain = 0
KOD1 170835Z 13006KT 07/02 A2997 RMK A01 T00660015  RH  070%=      5-min Rain = 0
KOD1 170836Z 13006KT 07/02 A2997 RMK A01 T00660016  RH  070%=      5-min Rain = 0
KOD1 170837Z 13005KT 07/02 A2997 RMK A01 T00660016  RH  070%=      5-min Rain = 0
KOD1 170838Z 13005KT 07/02 A2997 RMK A01 T00660015  RH  070%=      5-min Rain = 0
KOD1 170839Z 13005KT 07/02 A2997 RMK A01 T00660015  RH  070%=      5-min Rain = 0
KOD1 170840Z 14005KT 07/02 A2997 RMK A01 T00660016  RH  070%=      5-min Rain = 0
KOD1 170841Z 14005KT 07/02 A2998 RMK A01 T00660016  RH  070%=      5-min Rain = 0
KOD1 170842Z 14005KT 07/02 A2998 RMK A01 T00660016  RH  070%=      5-min Rain = 0
KOD1 170843Z 14005KT 07/02 A2998 RMK A01 T00660016  RH  070%=      5-min Rain = 0
KOD1 170844Z 14006KT 07/02 A2998 RMK A01 T00660016  RH  070%=      5-min Rain = 0
KOD1 170845Z 13005KT 07/02 A2998 RMK A01 T00660016  RH  070%=      5-min Rain = 0
KOD1 170846Z 13005KT 07/02 A2998 RMK A01 T00660015  RH  070%=      5-min Rain = 0
KOD1 170847Z 13005KT 07/02 A2998 RMK A01 T00660016  RH  070%=      5-min Rain = 0
KOD1 170848Z 12007KT 07/02 A2998 RMK A01 T00650016  RH  071%=      5-min Rain = 0
KOD1 170849Z 12007KT 07/02 A2998 RMK A01 T00650016  RH  071%=      5-min Rain = 0
KOD1 170850Z 12007KT 06/02 A2998 RMK A01 T00640016  RH  071%=      5-min Rain = 0
KOD1 170851Z 12007KT 06/02 A2998 RMK A01 T00640016  RH  071%=      5-min Rain = 0
KOD1 170852Z 12007KT 06/02 A2998 RMK A01 T00640016  RH  071%=      5-min Rain = 0
KOD1 170853Z 13007KT 06/02 A2998 RMK A01 T00640016  RH  071%=      5-min Rain = 0
KOD1 170854Z 12007KT 06/02 A2998 RMK A01 T00630015  RH  072%=      5-min Rain = 0
KOD1 170855Z 13007KT 06/02 A2998 RMK A01 T00630016  RH  072%=      5-min Rain = 0
KOD1 170856Z 13007KT 06/02 A2998 RMK A01 T00620016  RH  072%=      5-min Rain = 0
KOD1 170857Z 13007KT 06/02 A2998 RMK A01 T00620016  RH  072%=      5-min Rain = 0
KOD1 170858Z 13008KT 06/02 A2998 RMK A01 T00620016  RH  072%=      5-min Rain = 0
KOD1 170859Z 13008KT 06/02 A2997 RMK A01 T00620016  RH  072%=      5-min Rain = 0
KOD1 170900Z 13007KT 06/02 A2997 RMK A01 T00620016  RH  072%=      5-min Rain = 0
KOD1 170901Z 13008KT 06/02 A2997 RMK A01 T00620016  RH  072%=      5-min Rain = 0
KOD1 170902Z 13007KT 06/02 A2997 RMK A01 T00620016  RH  072%=      5-min Rain = 0
KOD1 170903Z 14007KT 06/02 A2997 RMK A01 T00620016  RH  072%=      5-min Rain = 0
KOD1 170904Z 14007KT 06/02 A2997 RMK A01 T00620016  RH  072%=      5-min Rain = 0
KOD1 170905Z 14009KT 06/02 A2997 RMK A01 T00620016  RH  072%=      5-min Rain = 0
KOD1 170906Z 14008KT 06/02 A2997 RMK A01 T00630016  RH  072%=      5-min Rain = 0
KOD1 170907Z 13008KT 06/02 A2997 RMK A01 T00630016  RH  072%=      5-min Rain = 0
KOD1 170908Z 13008KT 06/02 A2997 RMK A01 T00620016  RH  072%=      5-min Rain = 0
KOD1 170909Z 13008KT 06/02 A2997 RMK A01 T00620016  RH  072%=      5-min Rain = 0
KOD1 170910Z 13008KT 06/02 A2997 RMK A01 T00610015  RH  072%=      5-min Rain = 0
KOD1 170911Z 13008KT 06/02 A2997 RMK A01 T00610016  RH  073%=      5-min Rain = 0
KOD1 170912Z 13008KT 06/02 A2998 RMK A01 T00610016  RH  073%=      5-min Rain = 0
KOD1 170913Z 13009KT 06/02 A2998 RMK A01 T00610016  RH  073%=      5-min Rain = 0
KOD1 170914Z 13008KT 06/02 A2998 RMK A01 T00610016  RH  073%=      5-min Rain = 0
KOD1 170915Z 13009KT 06/02 A2998 RMK A01 T00610016  RH  072%=      5-min Rain = 0
KOD1 170916Z 13008KT 06/02 A2998 RMK A01 T00620016  RH  072%=      5-min Rain = 0
KOD1 170917Z 13009KT 06/02 A2998 RMK A01 T00620016  RH  072%=      5-min Rain = 0
KOD1 170918Z 13008KT 06/02 A2998 RMK A01 T00630016  RH  072%=      5-min Rain = 0
KOD1 170919Z 13008KT 06/02 A2998 RMK A01 T00630016  RH  072%=      5-min Rain = 0
KOD1 170920Z 13008KT 06/02 A2998 RMK A01 T00630016  RH  072%=      5-min Rain = 0
KOD1 170921Z 13008KT 06/02 A2998 RMK A01 T00620015  RH  072%=      5-min Rain = 0
KOD1 170922Z 13008KT 06/02 A2998 RMK A01 T00620015  RH  072%=      5-min Rain = 0
KOD1 170923Z 13008KT 06/02 A2998 RMK A01 T00610015  RH  072%=      5-min Rain = 0
KOD1 170924Z 13007KT 06/02 A2998 RMK A01 T00610015  RH  072%=      5-min Rain = 0
KOD1 170925Z 13007KT 06/02 A2998 RMK A01 T00600015  RH  073%=      5-min Rain = 0
KOD1 170926Z 13007KT 06/02 A2998 RMK A01 T00600015  RH  073%=      5-min Rain = 0
KOD1 170927Z 13006KT 06/02 A2998 RMK A01 T00600015  RH  073%=      5-min Rain = 0
KOD1 170928Z 13006KT 06/01 A2998 RMK A01 T00600014  RH  073%=      5-min Rain = 0
KOD1 170929Z 14006KT 06/01 A2998 RMK A01 T00600014  RH  073%=      5-min Rain = 0
KOD1 170930Z 14006KT 06/01 A2998 RMK A01 T00590014  RH  073%=      5-min Rain = 0
KOD1 170931Z 14006KT 06/01 A2998 RMK A01 T00590014  RH  073%=      5-min Rain = 0
KOD1 170932Z 13005KT 06/01 A2998 RMK A01 T00580014  RH  073%=      5-min Rain = 0
KOD1 170933Z 13004KT 06/01 A2998 RMK A01 T00580014  RH  073%=      5-min Rain = 0
KOD1 170934Z 12004KT 06/01 A2999 RMK A01 T00580013  RH  073%=      5-min Rain = 0
KOD1 170935Z 12004KT 06/01 A2999 RMK A01 T00570013  RH  073%=      5-min Rain = 0
KOD1 170936Z 12004KT 06/01 A2999 RMK A01 T00570014  RH  074%=      5-min Rain = 0
KOD1 170937Z 12005KT 06/01 A2999 RMK A01 T00560013  RH  074%=      5-min Rain = 0
KOD1 170938Z 12005KT 06/01 A2999 RMK A01 T00570014  RH  074%=      5-min Rain = 0
KOD1 170939Z 12005KT 06/01 A2999 RMK A01 T00570014  RH  074%=      5-min Rain = 0
KOD1 170940Z 12005KT 06/01 A2999 RMK A01 T00570014  RH  074%=      5-min Rain = 0
KOD1 170941Z 12005KT 06/01 A2999 RMK A01 T00570014  RH  074%=      5-min Rain = 0
KOD1 170942Z 12005KT 06/01 A2999 RMK A01 T00570013  RH  073%=      5-min Rain = 0
KOD1 170943Z 12005KT 06/01 A2999 RMK A01 T00560013  RH  074%=      5-min Rain = 0
KOD1 170944Z 12006KT 06/01 A2999 RMK A01 T00560013  RH  074%=      5-min Rain = 0
KOD1 170945Z 12005KT 06/01 A2999 RMK A01 T00560013  RH  074%=      5-min Rain = 0
KOD1 170946Z 12005KT 06/01 A2999 RMK A01 T00560013  RH  074%=      5-min Rain = 0
KOD1 170947Z 12005KT 06/01 A2999 RMK A01 T00560014  RH  074%=      5-min Rain = 0
KOD1 170948Z 12005KT 06/01 A2999 RMK A01 T00560013  RH  074%=      5-min Rain = 0
KOD1 170949Z 12005KT 06/01 A2999 RMK A01 T00550012  RH  074%=      5-min Rain = 0
KOD1 170950Z 12005KT 05/01 A2999 RMK A01 T00540012  RH  074%=      5-min Rain = 0
KOD1 170951Z 12005KT 05/01 A2999 RMK A01 T00540012  RH  074%=      5-min Rain = 0
KOD1 170952Z 12006KT 05/01 A2999 RMK A01 T00530011  RH  075%=      5-min Rain = 0
KOD1 170953Z 12006KT 05/01 A2999 RMK A01 T00520011  RH  075%=      5-min Rain = 0
KOD1 170954Z 12006KT 05/01 A2999 RMK A01 T00510010  RH  075%=      5-min Rain = 0
KOD1 170955Z 12006KT 05/01 A2999 RMK A01 T00500010  RH  075%=      5-min Rain = 0
KOD1 170956Z 12005KT 05/01 A2999 RMK A01 T00490010  RH  076%=      5-min Rain = 0
KOD1 170957Z 11005KT 05/01 A2999 RMK A01 T00470009  RH  076%=      5-min Rain = 0
KOD1 170958Z 11005KT 05/01 A2999 RMK A01 T00460008  RH  076%=      5-min Rain = 0
KOD1 170959Z 11005KT 05/01 A2999 RMK A01 T00450008  RH  077%=      5-min Rain = 0
KOD1 171000Z 11005KT 04/01 A2999 RMK A01 T00440009  RH  078%=      5-min Rain = 0
KOD1 171001Z 11005KT 04/01 A2999 RMK A01 T00440009  RH  078%=      5-min Rain = 0
KOD1 171002Z 11005KT 04/01 A2999 RMK A01 T00440010  RH  078%=      5-min Rain = 0
KOD1 171003Z 11006KT 04/01 A2999 RMK A01 T00440010  RH  078%=      5-min Rain = 0
KOD1 171004Z 12006KT 04/01 A2999 RMK A01 T00440010  RH  078%=      5-min Rain = 0
KOD1 171005Z 12006KT 04/01 A2999 RMK A01 T00440010  RH  079%=      5-min Rain = 0
KOD1 171006Z 12007KT 04/01 A2999 RMK A01 T00440011  RH  079%=      5-min Rain = 0
KOD1 171007Z 12007KT 05/01 A2999 RMK A01 T00450011  RH  079%=      5-min Rain = 0
KOD1 171008Z 12006KT 05/01 A2999 RMK A01 T00460012  RH  079%=      5-min Rain = 0
KOD1 171009Z 12006KT 05/01 A2999 RMK A01 T00460012  RH  079%=      5-min Rain = 0
KOD1 171010Z 12006KT 05/01 A2999 RMK A01 T00470013  RH  078%=      5-min Rain = 0
KOD1 171011Z 12006KT 05/01 A2999 RMK A01 T00490014  RH  078%=      5-min Rain = 0
KOD1 171012Z 12006KT 05/02 A2999 RMK A01 T00510015  RH  078%=      5-min Rain = 0
KOD1 171013Z 11005KT 05/02 A2999 RMK A01 T00520015  RH  077%=      5-min Rain = 0
KOD1 171014Z 11005KT 05/02 A2999 RMK A01 T00530015  RH  077%=      5-min Rain = 0
KOD1 171015Z 11005KT 05/02 A2999 RMK A01 T00530015  RH  076%=      5-min Rain = 0
KOD1 171016Z 10004KT 05/02 A30 RMK A01 T00530015  RH  076%=      5-min Rain = 0
KOD1 171017Z 09003KT 05/02 A30 RMK A01 T00530015  RH  076%=      5-min Rain = 0
KOD1 171018Z 08003KT 05/01 A30 RMK A01 T00530014  RH  076%=      5-min Rain = 0
KOD1 171019Z 08004KT 05/01 A30 RMK A01 T00520013  RH  076%=      5-min Rain = 0
KOD1 171020Z 07003KT 05/01 A30 RMK A01 T00500012  RH  076%=      5-min Rain = 0
KOD1 171021Z 07004KT 05/01 A30 RMK A01 T00490012  RH  077%=      5-min Rain = 0
KOD1 171022Z 07004KT 05/01 A30 RMK A01 T00490013  RH  077%=      5-min Rain = 0
KOD1 171023Z 06004KT 05/01 A30 RMK A01 T00480013  RH  078%=      5-min Rain = 0
KOD1 171024Z 05004KT 05/01 A30 RMK A01 T00480013  RH  078%=      5-min Rain = 0
KOD1 171025Z 05003KT 05/01 A30 RMK A01 T00480014  RH  079%=      5-min Rain = 0
KOD1 171026Z 05003KT 05/01 A30 RMK A01 T00470014  RH  079%=      5-min Rain = 0
KOD1 171027Z 05003KT 05/01 A30 RMK A01 T00470014  RH  079%=      5-min Rain = 0
KOD1 171028Z 03003KT 05/02 A30 RMK A01 T00470015  RH  079%=      5-min Rain = 0
KOD1 171029Z 02004KT 05/02 A3001 RMK A01 T00470015  RH  079%=      5-min Rain = 0
KOD1 171030Z 01004KT 05/01 A3001 RMK A01 T00460014  RH  080%=      5-min Rain = 0
KOD1 171031Z 00005KT 05/01 A3001 RMK A01 T00450013  RH  080%=      5-min Rain = 0
KOD1 171032Z 01005KT 04/01 A3001 RMK A01 T00440012  RH  080%=      5-min Rain = 0
KOD1 171033Z 01004KT 04/01 A30 RMK A01 T00420012  RH  081%=      5-min Rain = 0
KOD1 171034Z 01004KT 04/01 A3001 RMK A01 T00420013  RH  082%=      5-min Rain = 0
KOD1 171035Z 35005KT 04/01 A3001 RMK A01 T00410014  RH  082%=      5-min Rain = 0
KOD1 171036Z 33006KT 04/02 A3001 RMK A01 T00420015  RH  083%=      5-min Rain = 0
KOD1 171037Z 33006KT 04/02 A3001 RMK A01 T00420016  RH  083%=      5-min Rain = 0
KOD1 171038Z 32005KT 04/02 A3001 RMK A01 T00430017  RH  083%=      5-min Rain = 0
KOD1 171039Z 33006KT 04/02 A3002 RMK A01 T00430017  RH  083%=      5-min Rain = 0
KOD1 171040Z 33006KT 04/02 A3002 RMK A01 T00430016  RH  082%=      5-min Rain = 0
KOD1 171041Z 33006KT 04/02 A3002 RMK A01 T00430015  RH  082%=      5-min Rain = 0
KOD1 171042Z 33007KT 04/01 A3002 RMK A01 T00420014  RH  082%=      5-min Rain = 0
KOD1 171043Z 33006KT 04/01 A3002 RMK A01 T00410014  RH  082%=      5-min Rain = 0
KOD1 171044Z 33006KT 04/01 A3002 RMK A01 T00410014  RH  083%=      5-min Rain = 0
KOD1 171045Z 33007KT 04/01 A3002 RMK A01 T00400014  RH  083%=      5-min Rain = 0
KOD1 171046Z 33007KT 04/01 A3002 RMK A01 T00400014  RH  083%=      5-min Rain = 0
KOD1 171047Z 33008KT 04/01 A3003 RMK A01 T00400014  RH  083%=      5-min Rain = 0
KOD1 171048Z 33008KT 04/02 A3003 RMK A01 T00400015  RH  084%=      5-min Rain = 0
KOD1 171049Z 33007KT 04/02 A3003 RMK A01 T00410015  RH  084%=      5-min Rain = 0
KOD1 171050Z 33006KT 04/02 A3002 RMK A01 T00410015  RH  084%=      5-min Rain = 0
KOD1 171051Z 33007KT 04/02 A3002 RMK A01 T00410016  RH  083%=      5-min Rain = 0
KOD1 171052Z 34007KT 04/02 A3002 RMK A01 T00420016  RH  083%=      5-min Rain = 0
KOD1 171053Z 34006KT 04/02 A3002 RMK A01 T00420016  RH  083%=      5-min Rain = 0
KOD1 171054Z 35006KT 04/02 A3002 RMK A01 T00430016  RH  083%=      5-min Rain = 0
KOD1 171055Z 35006KT 04/02 A3002 RMK A01 T00430016  RH  083%=      5-min Rain = 0
KOD1 171056Z 35006KT 04/02 A3003 RMK A01 T00430016  RH  083%=      5-min Rain = 0
KOD1 171057Z 35007KT 04/02 A3003 RMK A01 T00440016  RH  082%=      5-min Rain = 0
KOD1 171058Z 34007KT 04/02 A3003 RMK A01 T00440017  RH  082%=      5-min Rain = 0
KOD1 171059Z 34006KT 04/02 A3003 RMK A01 T00440017  RH  082%=      5-min Rain = 0
KOD1 171100Z 35006KT 05/02 A3003 RMK A01 T00450018  RH  082%=      5-min Rain = 0
KOD1 171101Z 34006KT 05/02 A3003 RMK A01 T00450017  RH  082%=      5-min Rain = 0
KOD1 171102Z 34007KT 05/02 A3003 RMK A01 T00450017  RH  082%=      5-min Rain = 0
KOD1 171103Z 34007KT 05/02 A3003 RMK A01 T00460018  RH  082%=      5-min Rain = 0
KOD1 171104Z 35007KT 05/02 A3003 RMK A01 T00460018  RH  082%=      5-min Rain = 0
KOD1 171105Z 35008KT 05/02 A3003 RMK A01 T00460017  RH  082%=      5-min Rain = 0
KOD1 171106Z 35007KT 05/02 A3003 RMK A01 T00460017  RH  082%=      5-min Rain = 0
KOD1 171107Z 35007KT 05/02 A3003 RMK A01 T00460018  RH  082%=      5-min Rain = 0
KOD1 171108Z 35006KT 05/02 A3003 RMK A01 T00450017  RH  082%=      5-min Rain = 0
KOD1 171109Z 35005KT 05/02 A3003 RMK A01 T00450017  RH  082%=      5-min Rain = 0
KOD1 171110Z 00004KT 05/02 A3003 RMK A01 T00450018  RH  082%=      5-min Rain = 0
KOD1 171111Z 00004KT 05/02 A3003 RMK A01 T00450018  RH  082%=      5-min Rain = 0
KOD1 171112Z 36005KT 05/02 A3003 RMK A01 T00450017  RH  082%=      5-min Rain = 0
KOD1 171113Z 35005KT 04/02 A3003 RMK A01 T00440017  RH  083%=      5-min Rain = 0
KOD1 171114Z 35005KT 05/02 A3003 RMK A01 T00450018  RH  083%=      5-min Rain = 0
KOD1 171115Z 34005KT 04/02 A3003 RMK A01 T00440018  RH  083%=      5-min Rain = 0
KOD1 171116Z 35006KT 05/02 A3003 RMK A01 T00450018  RH  083%=      5-min Rain = 0
KOD1 171117Z 35006KT 05/02 A3003 RMK A01 T00450018  RH  083%=      5-min Rain = 0
KOD1 171118Z 36006KT 05/02 A3003 RMK A01 T00450018  RH  083%=      5-min Rain = 0
KOD1 171119Z 01005KT 05/02 A3003 RMK A01 T00450018  RH  083%=      5-min Rain = 0
KOD1 171120Z 01004KT 05/02 A3003 RMK A01 T00450017  RH  083%=      5-min Rain = 0
KOD1 171121Z 02003KT 05/02 A3003 RMK A01 T00450018  RH  083%=      5-min Rain = 0
KOD1 171122Z 02003KT 04/02 A3002 RMK A01 T00440017  RH  083%=      5-min Rain = 0
KOD1 171123Z 01005KT 04/02 A3003 RMK A01 T00440017  RH  083%=      5-min Rain = 0
KOD1 171124Z 01003KT 04/02 A3002 RMK A01 T00440017  RH  083%=      5-min Rain = 0
KOD1 171125Z 02004KT 04/02 A3002 RMK A01 T00440018  RH  083%=      5-min Rain = 0
KOD1 171126Z 01006KT 04/02 A3003 RMK A01 T00440017  RH  083%=      5-min Rain = 0
KOD1 171127Z 01005KT 04/02 A3002 RMK A01 T00440018  RH  083%=      5-min Rain = 0
KOD1 171128Z 01006KT 04/02 A3002 RMK A01 T00440018  RH  083%=      5-min Rain = 0
KOD1 171129Z 01005KT 04/02 A3002 RMK A01 T00440018  RH  083%=      5-min Rain = 0
KOD1 171130Z 01005KT 04/02 A3002 RMK A01 T00440017  RH  083%=      5-min Rain = 0
KOD1 171131Z 01006KT 04/02 A3003 RMK A01 T00440017  RH  083%=      5-min Rain = 0
KOD1 171132Z 00006KT 04/02 A3003 RMK A01 T00440017  RH  082%=      5-min Rain = 0
KOD1 171133Z 00007KT 04/02 A3003 RMK A01 T00440017  RH  082%=      5-min Rain = 0
KOD1 171134Z 00007KT 04/02 A3003 RMK A01 T00440017  RH  083%=      5-min Rain = 0
KOD1 171135Z 36007KT 04/02 A3003 RMK A01 T00440017  RH  083%=      5-min Rain = 0
KOD1 171136Z 36007KT 04/02 A3003 RMK A01 T00440017  RH  083%=      5-min Rain = 0
KOD1 171137Z 35007KT 04/02 A3003 RMK A01 T00440017  RH  083%=      5-min Rain = 0
KOD1 171138Z 35007KT 04/02 A3003 RMK A01 T00440017  RH  083%=      5-min Rain = 0
KOD1 171139Z 35007KT 04/02 A3003 RMK A01 T00440017  RH  083%=      5-min Rain = 0
KOD1 171140Z 36006KT 04/02 A3003 RMK A01 T00440016  RH  082%=      5-min Rain = 0
KOD1 171141Z 01006KT 04/02 A3003 RMK A01 T00430016  RH  082%=      5-min Rain = 0
KOD1 171142Z 01006KT 04/02 A3003 RMK A01 T00430016  RH  082%=      5-min Rain = 0
KOD1 171143Z 01006KT 04/02 A3003 RMK A01 T00430015  RH  082%=      5-min Rain = 0
KOD1 171144Z 01006KT 04/02 A3003 RMK A01 T00420015  RH  082%=      5-min Rain = 0
KOD1 171145Z 01006KT 04/02 A3003 RMK A01 T00420015  RH  083%=      5-min Rain = 0
KOD1 171146Z 01007KT 04/02 A3003 RMK A01 T00420015  RH  083%=      5-min Rain = 0
KOD1 171147Z 01006KT 04/02 A3003 RMK A01 T00430016  RH  083%=      5-min Rain = 0
KOD1 171148Z 01006KT 04/02 A3003 RMK A01 T00420016  RH  083%=      5-min Rain = 0
KOD1 171149Z 01007KT 04/02 A3003 RMK A01 T00420016  RH  083%=      5-min Rain = 0
KOD1 171150Z 01007KT 04/02 A3003 RMK A01 T00430016  RH  083%=      5-min Rain = 0
KOD1 171151Z 01006KT 04/02 A3003 RMK A01 T00430016  RH  083%=      5-min Rain = 0
KOD1 171152Z 01006KT 04/02 A3003 RMK A01 T00430016  RH  083%=      5-min Rain = 0
KOD1 171153Z 02007KT 04/02 A3003 RMK A01 T00440017  RH  082%=      5-min Rain = 0
KOD1 171154Z 02005KT 04/02 A3003 RMK A01 T00440016  RH  082%=      5-min Rain = 0
KOD1 171155Z 03006KT 04/02 A3003 RMK A01 T00440016  RH  082%=      5-min Rain = 0
KOD1 171156Z 03006KT 05/02 A3003 RMK A01 T00450016  RH  082%=      5-min Rain = 0
KOD1 171157Z 04006KT 04/02 A3003 RMK A01 T00440016  RH  082%=      5-min Rain = 0
KOD1 171158Z 04006KT 05/02 A3003 RMK A01 T00450016  RH  082%=      5-min Rain = 0
KOD1 171159Z 03006KT 04/02 A3003 RMK A01 T00440016  RH  082%=      5-min Rain = 0
KOD1 171200Z 03007KT 04/02 A3003 RMK A01 T00440016  RH  082%=      5-min Rain = 0
KOD1 171201Z 03006KT 04/02 A3003 RMK A01 T00440016  RH  082%=      5-min Rain = 0
KOD1 171202Z 03006KT 04/02 A3003 RMK A01 T00440016  RH  082%=      5-min Rain = 0
KOD1 171203Z 03006KT 04/02 A3003 RMK A01 T00440016  RH  082%=      5-min Rain = 0
KOD1 171204Z 03006KT 04/02 A3003 RMK A01 T00440016  RH  082%=      5-min Rain = 0
KOD1 171205Z 03006KT 04/02 A3003 RMK A01 T00440016  RH  082%=      5-min Rain = 0
KOD1 171206Z 03006KT 04/02 A3003 RMK A01 T00440016  RH  082%=      5-min Rain = 0
KOD1 171207Z 02006KT 04/02 A3003 RMK A01 T00440016  RH  082%=      5-min Rain = 0
KOD1 171208Z 02006KT 04/02 A3003 RMK A01 T00440016  RH  082%=      5-min Rain = 0
KOD1 171209Z 02007KT 04/02 A3003 RMK A01 T00440016  RH  082%=      5-min Rain = 0
KOD1 171210Z 02007KT 04/02 A3003 RMK A01 T00440016  RH  082%=      5-min Rain = 0
KOD1 171211Z 02007KT 05/02 A3003 RMK A01 T00450016  RH  082%=      5-min Rain = 0
KOD1 171212Z 02006KT 05/02 A3003 RMK A01 T00450016  RH  082%=      5-min Rain = 0
KOD1 171213Z 02006KT 05/02 A3004 RMK A01 T00450016  RH  082%=      5-min Rain = 0
KOD1 171214Z 01006KT 05/02 A3004 RMK A01 T00450016  RH  082%=      5-min Rain = 0
KOD1 171215Z 01007KT 05/02 A3004 RMK A01 T00450016  RH  081%=      5-min Rain = 0
KOD1 171216Z 01006KT 05/02 A3004 RMK A01 T00450016  RH  081%=      5-min Rain = 0
KOD1 171217Z 01006KT 05/02 A3004 RMK A01 T00450016  RH  081%=      5-min Rain = 0
KOD1 171218Z 01006KT 04/02 A3004 RMK A01 T00440015  RH  082%=      5-min Rain = 0
KOD1 171219Z 02006KT 04/02 A3004 RMK A01 T00440015  RH  082%=      5-min Rain = 0
KOD1 171220Z 02006KT 04/02 A3004 RMK A01 T00440015  RH  082%=      5-min Rain = 0
KOD1 171221Z 02005KT 04/02 A3004 RMK A01 T00430015  RH  082%=      5-min Rain = 0
KOD1 171222Z 02005KT 04/02 A3004 RMK A01 T00430015  RH  082%=      5-min Rain = 0
KOD1 171223Z 02005KT 04/01 A3004 RMK A01 T00430014  RH  082%=      5-min Rain = 0
KOD1 171224Z 01005KT 04/01 A3004 RMK A01 T00420014  RH  082%=      5-min Rain = 0
KOD1 171225Z 01005KT 04/01 A3004 RMK A01 T00420014  RH  082%=      5-min Rain = 0
KOD1 171226Z 01005KT 04/01 A3004 RMK A01 T00410014  RH  082%=      5-min Rain = 0
KOD1 171227Z 01005KT 04/01 A3004 RMK A01 T00410013  RH  082%=      5-min Rain = 0
KOD1 171228Z 01005KT 04/01 A3004 RMK A01 T00410013  RH  082%=      5-min Rain = 0
KOD1 171229Z 01005KT 04/01 A3004 RMK A01 T00400013  RH  083%=      5-min Rain = 0
KOD1 171230Z 01006KT 04/01 A3004 RMK A01 T00400013  RH  083%=      5-min Rain = 0
KOD1 171231Z 01006KT 04/01 A3005 RMK A01 T00390013  RH  083%=      5-min Rain = 0
KOD1 171232Z 01006KT 04/01 A3004 RMK A01 T00390013  RH  083%=      5-min Rain = 0
KOD1 171233Z 01006KT 04/01 A3004 RMK A01 T00390013  RH  083%=      5-min Rain = 0
KOD1 171234Z 01006KT 04/01 A3004 RMK A01 T00390013  RH  083%=      5-min Rain = 0
KOD1 171235Z 01006KT 04/01 A3004 RMK A01 T00380012  RH  083%=      5-min Rain = 0
KOD1 171236Z 01006KT 04/01 A3005 RMK A01 T00380012  RH  083%=      5-min Rain = 0
KOD1 171237Z 00006KT 04/01 A3005 RMK A01 T00370012  RH  083%=      5-min Rain = 0
KOD1 171238Z 00006KT 04/01 A3005 RMK A01 T00370012  RH  084%=      5-min Rain = 0
KOD1 171239Z 00006KT 04/01 A3005 RMK A01 T00370012  RH  084%=      5-min Rain = 0
KOD1 171240Z 00006KT 04/01 A3005 RMK A01 T00370012  RH  084%=      5-min Rain = 0
KOD1 171241Z 00005KT 04/01 A3005 RMK A01 T00360011  RH  084%=      5-min Rain = 0
KOD1 171242Z 00006KT 04/01 A3005 RMK A01 T00360011  RH  084%=      5-min Rain = 0
KOD1 171243Z 35007KT 04/01 A3005 RMK A01 T00360011  RH  084%=      5-min Rain = 0
KOD1 171244Z 35007KT 04/01 A3005 RMK A01 T00360012  RH  084%=      5-min Rain = 0
KOD1 171245Z 35007KT 04/01 A3006 RMK A01 T00360012  RH  084%=      5-min Rain = 0
KOD1 171246Z 34007KT 04/01 A3006 RMK A01 T00360012  RH  084%=      5-min Rain = 0
KOD1 171247Z 35007KT 04/01 A3006 RMK A01 T00360012  RH  084%=      5-min Rain = 0
KOD1 171248Z 35006KT 04/01 A3005 RMK A01 T00360012  RH  084%=      5-min Rain = 0
KOD1 171249Z 00005KT 04/01 A3005 RMK A01 T00360012  RH  084%=      5-min Rain = 0
KOD1 171250Z 01005KT 04/01 A3005 RMK A01 T00360012  RH  084%=      5-min Rain = 0
KOD1 171251Z 00006KT 04/01 A3005 RMK A01 T00350011  RH  084%=      5-min Rain = 0
KOD1 171252Z 35007KT 04/01 A3006 RMK A01 T00350012  RH  084%=      5-min Rain = 0
KOD1 171253Z 35007KT 04/01 A3006 RMK A01 T00350012  RH  085%=      5-min Rain = 0
KOD1 171254Z 34006KT 04/01 A3006 RMK A01 T00350011  RH  084%=      5-min Rain = 0
KOD1 171255Z 34005KT 04/01 A3006 RMK A01 T00350011  RH  085%=      5-min Rain = 0
KOD1 171256Z 34005KT 04/01 A3006 RMK A01 T00350011  RH  085%=      5-min Rain = 0
KOD1 171257Z 34005KT 04/01 A3006 RMK A01 T00350012  RH  085%=      5-min Rain = 0
KOD1 171258Z 34005KT 04/01 A3006 RMK A01 T00350012  RH  085%=      5-min Rain = 0
KOD1 171259Z 34005KT 04/01 A3006 RMK A01 T00350012  RH  085%=      5-min Rain = 0
KOD1 171300Z 33005KT 04/01 A3006 RMK A01 T00350012  RH  085%=      5-min Rain = 0
KOD1 171301Z 33005KT 04/01 A3006 RMK A01 T00350012  RH  085%=      5-min Rain = 0
KOD1 171302Z 33005KT 04/01 A3006 RMK A01 T00350011  RH  085%=      5-min Rain = 0
KOD1 171303Z 33005KT 03/01 A3007 RMK A01 T00340011  RH  085%=      5-min Rain = 0
KOD1 171304Z 33005KT 03/01 A3007 RMK A01 T00340010  RH  085%=      5-min Rain = 0
KOD1 171305Z 33006KT 03/01 A3007 RMK A01 T00330010  RH  085%=      5-min Rain = 0
KOD1 171306Z 34006KT 03/01 A3007 RMK A01 T00330010  RH  085%=      5-min Rain = 0
KOD1 171307Z 34006KT 03/01 A3007 RMK A01 T00330010  RH  085%=      5-min Rain = 0
KOD1 171308Z 34006KT 03/01 A3007 RMK A01 T00330011  RH  085%=      5-min Rain = 0
KOD1 171309Z 34005KT 03/01 A3007 RMK A01 T00340011  RH  085%=      5-min Rain = 0
KOD1 171310Z 34006KT 03/01 A3007 RMK A01 T00340012  RH  085%=      5-min Rain = 0
KOD1 171311Z 34005KT 04/01 A3007 RMK A01 T00350012  RH  085%=      5-min Rain = 0
KOD1 171312Z 34006KT 04/01 A3007 RMK A01 T00350012  RH  085%=      5-min Rain = 0
KOD1 171313Z 34006KT 04/01 A3007 RMK A01 T00350012  RH  085%=      5-min Rain = 0
KOD1 171314Z 34006KT 04/01 A3007 RMK A01 T00360012  RH  085%=      5-min Rain = 0
KOD1 171315Z 34005KT 04/01 A3007 RMK A01 T00360013  RH  085%=      5-min Rain = 0
KOD1 171316Z 34005KT 04/01 A3007 RMK A01 T00370013  RH  084%=      5-min Rain = 0
KOD1 171317Z 34006KT 04/01 A3007 RMK A01 T00370013  RH  084%=      5-min Rain = 0
KOD1 171318Z 34005KT 04/01 A3008 RMK A01 T00370013  RH  084%=      5-min Rain = 0
KOD1 171319Z 34005KT 04/01 A3008 RMK A01 T00370013  RH  084%=      5-min Rain = 0
KOD1 171320Z 33004KT 04/01 A3008 RMK A01 T00370013  RH  084%=      5-min Rain = 0
KOD1 171321Z 33004KT 04/01 A3008 RMK A01 T00370012  RH  084%=      5-min Rain = 0
KOD1 171322Z 33004KT 04/01 A3008 RMK A01 T00360011  RH  084%=      5-min Rain = 0
KOD1 171323Z 33004KT 04/01 A3008 RMK A01 T00360011  RH  084%=      5-min Rain = 0
KOD1 171324Z 33004KT 04/01 A3008 RMK A01 T00350011  RH  084%=      5-min Rain = 0
KOD1 171325Z 33004KT 04/01 A3008 RMK A01 T00350011  RH  084%=      5-min Rain = 0
KOD1 171326Z 33005KT 04/01 A3008 RMK A01 T00350010  RH  084%=      5-min Rain = 0
KOD1 171327Z 33005KT 04/01 A3008 RMK A01 T00350011  RH  084%=      5-min Rain = 0
KOD1 171328Z 33004KT 04/01 A3008 RMK A01 T00350011  RH  084%=      5-min Rain = 0
KOD1 171329Z 33005KT 03/01 A3008 RMK A01 T00340011  RH  085%=      5-min Rain = 0
KOD1 171330Z 32005KT 03/01 A3008 RMK A01 T00340011  RH  085%=      5-min Rain = 0
KOD1 171331Z 32005KT 03/01 A3008 RMK A01 T00340011  RH  085%=      5-min Rain = 0
KOD1 171332Z 33005KT 03/01 A3008 RMK A01 T00340011  RH  085%=      5-min Rain = 0
KOD1 171333Z 32004KT 03/01 A3008 RMK A01 T00340011  RH  085%=      5-min Rain = 0
KOD1 171334Z 32004KT 03/01 A3008 RMK A01 T00340011  RH  085%=      5-min Rain = 0
KOD1 171335Z 32004KT 03/01 A3008 RMK A01 T00340011  RH  085%=      5-min Rain = 0
KOD1 171336Z 31004KT 03/01 A3008 RMK A01 T00340011  RH  085%=      5-min Rain = 0
KOD1 171337Z 32005KT 03/01 A3009 RMK A01 T00340011  RH  085%=      5-min Rain = 0
KOD1 171338Z 31005KT 03/01 A3009 RMK A01 T00340011  RH  085%=      5-min Rain = 0
KOD1 171339Z 32005KT 03/01 A3009 RMK A01 T00340011  RH  085%=      5-min Rain = 0
KOD1 171340Z 32005KT 03/01 A3009 RMK A01 T00340011  RH  085%=      5-min Rain = 0
KOD1 171341Z 32005KT 03/01 A3009 RMK A01 T00340011  RH  085%=      5-min Rain = 0
KOD1 171342Z 32005KT 04/01 A3009 RMK A01 T00350012  RH  085%=      5-min Rain = 0
KOD1 171343Z 32005KT 04/01 A3009 RMK A01 T00350012  RH  085%=      5-min Rain = 0
KOD1 171344Z 32006KT 04/01 A3009 RMK A01 T00350012  RH  085%=      5-min Rain = 0
KOD1 171345Z 32006KT 04/01 A3009 RMK A01 T00360012  RH  085%=      5-min Rain = 0
KOD1 171346Z 32006KT 04/01 A3009 RMK A01 T00360013  RH  085%=      5-min Rain = 0
KOD1 171347Z 32005KT 04/01 A3009 RMK A01 T00370013  RH  085%=      5-min Rain = 0
KOD1 171348Z 33005KT 04/01 A3009 RMK A01 T00370013  RH  084%=      5-min Rain = 0
KOD1 171349Z 33005KT 04/01 A3009 RMK A01 T00380014  RH  084%=      5-min Rain = 0
KOD1 171350Z 33004KT 04/01 A3009 RMK A01 T00390014  RH  084%=      5-min Rain = 0
KOD1 171351Z 33005KT 04/02 A3009 RMK A01 T00400015  RH  083%=      5-min Rain = 0
KOD1 171352Z 33004KT 04/02 A3009 RMK A01 T00420015  RH  083%=      5-min Rain = 0
KOD1 171353Z 33005KT 04/02 A3009 RMK A01 T00430015  RH  082%=      5-min Rain = 0
KOD1 171354Z 32005KT 04/02 A3009 RMK A01 T00440016  RH  082%=      5-min Rain = 0
KOD1 171355Z 32005KT 05/02 A301 RMK A01 T00450016  RH  081%=      5-min Rain = 0
KOD1 171356Z 32006KT 05/02 A301 RMK A01 T00460016  RH  081%=      5-min Rain = 0
KOD1 171357Z 33006KT 05/02 A301 RMK A01 T00470016  RH  081%=      5-min Rain = 0
KOD1 171358Z 33007KT 05/02 A301 RMK A01 T00480016  RH  080%=      5-min Rain = 0
KOD1 171359Z 33007KT 05/02 A301 RMK A01 T00490016  RH  079%=      5-min Rain = 0
KOD1 171400Z 33007KT 05/02 A301 RMK A01 T00510016  RH  078%=      5-min Rain = 0
KOD1 171401Z 33007KT 05/02 A301 RMK A01 T00520016  RH  077%=      5-min Rain = 0
KOD1 171402Z 33006KT 05/02 A301 RMK A01 T00530016  RH  077%=      5-min Rain = 0
KOD1 171403Z 34006KT 05/02 A301 RMK A01 T00540016  RH  077%=      5-min Rain = 0
KOD1 171404Z 34007KT 06/02 A301 RMK A01 T00550016  RH  076%=      5-min Rain = 0
KOD1 171405Z 33007KT 06/02 A301 RMK A01 T00550016  RH  076%=      5-min Rain = 0
KOD1 171406Z 34007KT 06/02 A301 RMK A01 T00560017  RH  076%=      5-min Rain = 0
KOD1 171407Z 34006KT 06/02 A301 RMK A01 T00570017  RH  076%=      5-min Rain = 0
KOD1 171408Z 34007KT 06/02 A301 RMK A01 T00570017  RH  075%=      5-min Rain = 0
KOD1 171409Z 34007KT 06/02 A301 RMK A01 T00580017  RH  075%=      5-min Rain = 0
KOD1 171410Z 34007KT 06/02 A301 RMK A01 T00590017  RH  074%=      5-min Rain = 0
KOD1 171411Z 34006KT 06/02 A301 RMK A01 T00600017  RH  074%=      5-min Rain = 0
KOD1 171412Z 34006KT 06/02 A301 RMK A01 T00610017  RH  074%=      5-min Rain = 0
KOD1 171413Z 34005KT 06/02 A301 RMK A01 T00610017  RH  073%=      5-min Rain = 0
KOD1 171414Z 34006KT 06/02 A301 RMK A01 T00620017  RH  073%=      5-min Rain = 0
KOD1 171415Z 34007KT 06/02 A301 RMK A01 T00620016  RH  072%=      5-min Rain = 0
KOD1 171416Z 35006KT 06/02 A301 RMK A01 T00620016  RH  072%=      5-min Rain = 0
KOD1 171417Z 35007KT 06/02 A301 RMK A01 T00620016  RH  072%=      5-min Rain = 0
KOD1 171418Z 34006KT 06/02 A301 RMK A01 T00630016  RH  072%=      5-min Rain = 0
KOD1 171419Z 35005KT 06/02 A301 RMK A01 T00630017  RH  073%=      5-min Rain = 0
KOD1 171420Z 34004KT 06/02 A301 RMK A01 T00640018  RH  073%=      5-min Rain = 0
KOD1 171421Z 35005KT 07/02 A301 RMK A01 T00650019  RH  072%=      5-min Rain = 0
KOD1 171422Z 34005KT 07/02 A301 RMK A01 T00660019  RH  072%=      5-min Rain = 0
KOD1 171423Z 35005KT 07/02 A301 RMK A01 T00670020  RH  072%=      5-min Rain = 0
KOD1 171424Z 34006KT 07/02 A3011 RMK A01 T00670020  RH  072%=      5-min Rain = 0
KOD1 171425Z 34006KT 07/02 A3011 RMK A01 T00680020  RH  071%=      5-min Rain = 0
KOD1 171426Z 34005KT 07/02 A3011 RMK A01 T00680019  RH  071%=      5-min Rain = 0
KOD1 171427Z 34006KT 07/02 A3011 RMK A01 T00690020  RH  071%=      5-min Rain = 0
KOD1 171428Z 34007KT 07/02 A3011 RMK A01 T00700020  RH  070%=      5-min Rain = 0
KOD1 171429Z 34006KT 07/02 A3011 RMK A01 T00710020  RH  070%=      5-min Rain = 0
KOD1 171430Z 34006KT 07/02 A3011 RMK A01 T00720021  RH  070%=      5-min Rain = 0
KOD1 171431Z 34006KT 07/02 A3011 RMK A01 T00720020  RH  069%=      5-min Rain = 0
KOD1 171432Z 34006KT 07/02 A3011 RMK A01 T00730021  RH  069%=      5-min Rain = 0
KOD1 171433Z 34006KT 07/02 A3011 RMK A01 T00740021  RH  069%=      5-min Rain = 0
KOD1 171434Z 35007KT 08/02 A3011 RMK A01 T00760021  RH  068%=      5-min Rain = 0
KOD1 171435Z 34007KT 08/02 A3011 RMK A01 T00770021  RH  068%=      5-min Rain = 0
KOD1 171436Z 34006KT 08/02 A3011 RMK A01 T00780021  RH  067%=      5-min Rain = 0
KOD1 171437Z 34008KT 08/02 A3011 RMK A01 T00790021  RH  067%=      5-min Rain = 0
KOD1 171438Z 34008KT 08/02 A3011 RMK A01 T00800021  RH  066%=      5-min Rain = 0
KOD1 171439Z 34007KT 08/02 A3011 RMK A01 T00800021  RH  066%=      5-min Rain = 0
KOD1 171440Z 34006KT 08/02 A3011 RMK A01 T00810022  RH  066%=      5-min Rain = 0
KOD1 171441Z 34006KT 08/02 A3011 RMK A01 T00820022  RH  066%=      5-min Rain = 0
KOD1 171442Z 34007KT 08/02 A3011 RMK A01 T00830022  RH  066%=      5-min Rain = 0
KOD1 171443Z 33008KT 08/02 A3011 RMK A01 T00840023  RH  065%=      5-min Rain = 0
KOD1 171444Z 34007KT 09/02 A3011 RMK A01 T00850023  RH  065%=      5-min Rain = 0
KOD1 171445Z 33008KT 09/02 A3011 RMK A01 T00860023  RH  064%=      5-min Rain = 0
KOD1 171446Z 34007KT 09/02 A3011 RMK A01 T00870023  RH  064%=      5-min Rain = 0
KOD1 171447Z 33007KT 09/02 A3011 RMK A01 T00870023  RH  064%=      5-min Rain = 0
KOD1 171448Z 34008KT 09/03 A3011 RMK A01 T00890025  RH  064%=      5-min Rain = 0
KOD1 171449Z 34008KT 09/02 A3011 RMK A01 T00890023  RH  063%=      5-min Rain = 0
KOD1 171450Z 34008KT 09/02 A3011 RMK A01 T00900024  RH  063%=      5-min Rain = 0
KOD1 171451Z 34008KT 09/02 A3011 RMK A01 T00900023  RH  063%=      5-min Rain = 0
KOD1 171452Z 34008KT 09/02 A3011 RMK A01 T00910024  RH  063%=      5-min Rain = 0
KOD1 171453Z 34008KT 09/02 A3011 RMK A01 T00910024  RH  063%=      5-min Rain = 0
KOD1 171454Z 34006KT 09/03 A3011 RMK A01 T00930025  RH  063%=      5-min Rain = 0
KOD1 171455Z 34007KT 09/03 A3011 RMK A01 T00940025  RH  062%=      5-min Rain = 0
KOD1 171456Z 34008KT 09/03 A3011 RMK A01 T00940025  RH  062%=      5-min Rain = 0
KOD1 171457Z 34007KT 10/03 A3011 RMK A01 T00950026  RH  062%=      5-min Rain = 0
KOD1 171458Z 35009KT 10/03 A3011 RMK A01 T00960026  RH  062%=      5-min Rain = 0
KOD1 171459Z 35010KT 10/03 A3011 RMK A01 T00970026  RH  061%=      5-min Rain = 0
KOD1 171500Z 34008KT 10/03 A3011 RMK A01 T00990028  RH  061%=      5-min Rain = 0
KOD1 171501Z 34009KT 10/03 A3011 RMK A01 T01010028  RH  061%=      5-min Rain = 0
KOD1 171502Z 35011KT 10/03 A3011 RMK A01 T01020028  RH  060%=      5-min Rain = 0
KOD1 171503Z 35010KT 10/03 A3011 RMK A01 T01030029  RH  060%=      5-min Rain = 0
KOD1 171504Z 35013KT 11/03 A3011 RMK A01 T01060030  RH  059%=      5-min Rain = 0
KOD1 171505Z 35014KT 11/03 A3011 RMK A01 T01070028  RH  058%=      5-min Rain = 0
KOD1 171506Z 35013KT 11/03 A3011 RMK A01 T01080029  RH  058%=      5-min Rain = 0
KOD1 171507Z 35014KT 11/03 A3011 RMK A01 T01100029  RH  058%=      5-min Rain = 0
KOD1 171508Z 35013KT 11/03 A3011 RMK A01 T01110029  RH  057%=      5-min Rain = 0
KOD1 171509Z 34012KT 11/03 A3011 RMK A01 T01130030  RH  057%=      5-min Rain = 0
KOD1 171510Z 35012KT 11/03 A3011 RMK A01 T01140030  RH  056%=      5-min Rain = 0
KOD1 171511Z 35014KT 12/03 A3011 RMK A01 T01150031  RH  056%=      5-min Rain = 0
KOD1 171512Z 34014KT 12/03 A3011 RMK A01 T01160030  RH  056%=      5-min Rain = 0
KOD1 171513Z 35015KT 12/03 A3011 RMK A01 T01160030  RH  055%=      5-min Rain = 0
KOD1 171514Z 35011KT 12/03 A3011 RMK A01 T01160030  RH  055%=      5-min Rain = 0
KOD1 171515Z 35013KT 12/03 A3011 RMK A01 T01180031  RH  055%=      5-min Rain = 0
KOD1 171516Z 35013KT 12/03 A3012 RMK A01 T01190031  RH  055%=      5-min Rain = 0
KOD1 171517Z 35014KT 12/03 A3012 RMK A01 T01190030  RH  055%=      5-min Rain = 0
KOD1 171518Z 35016KT 12/03 A3012 RMK A01 T01190030  RH  054%=      5-min Rain = 0
KOD1 171519Z 35014KT 12/03 A3012 RMK A01 T01200031  RH  054%=      5-min Rain = 0
KOD1 171520Z 36013KT 12/03 A3012 RMK A01 T01220032  RH  054%=      5-min Rain = 0
KOD1 171521Z 36015KT 12/03 A3012 RMK A01 T01230032  RH  054%=      5-min Rain = 0
KOD1 171522Z 35014KT 12/03 A3011 RMK A01 T01240031  RH  053%=      5-min Rain = 0
KOD1 171523Z 36012KT 12/03 A3011 RMK A01 T01240032  RH  053%=      5-min Rain = 0
KOD1 171524Z 00015KT 13/03 A3011 RMK A01 T01250032  RH  053%=      5-min Rain = 0
KOD1 171525Z 36017KT 13/03 A3012 RMK A01 T01260032  RH  053%=      5-min Rain = 0
KOD1 171526Z 00016KT 13/03 A3012 RMK A01 T01270033  RH  052%=      5-min Rain = 0
KOD1 171527Z 36019KT 13/03 A3011 RMK A01 T01270031  RH  052%=      5-min Rain = 0
KOD1 171528Z 00017KT 13/03 A3012 RMK A01 T01270031  RH  052%=      5-min Rain = 0
KOD1 171529Z 00017KT 13/03 A3012 RMK A01 T01270031  RH  052%=      5-min Rain = 0
KOD1 171530Z 01017KT 13/03 A3011 RMK A01 T01280031  RH  051%=      5-min Rain = 0
KOD1 171531Z 00016KT 13/03 A3012 RMK A01 T01290031  RH  051%=      5-min Rain = 0
KOD1 171532Z 00019KT 13/03 A3012 RMK A01 T01290031  RH  051%=      5-min Rain = 0
KOD1 171533Z 00015KT 13/03 A3012 RMK A01 T01300031  RH  051%=      5-min Rain = 0
KOD1 171534Z 00017KT 13/03 A3012 RMK A01 T01300031  RH  051%=      5-min Rain = 0
KOD1 171535Z 36017KT 13/03 A3012 RMK A01 T01300031  RH  051%=      5-min Rain = 0
KOD1 171536Z 00016G22KT 13/03 A3012 RMK A01 T01310031  RH  051%=      5-min Rain = 0
KOD1 171537Z 00020KT 13/03 A3012 RMK A01 T01300030  RH  051%=      5-min Rain = 0
KOD1 171538Z 00021KT 13/03 A3012 RMK A01 T01300031  RH  051%=      5-min Rain = 0
KOD1 171539Z 01019KT 13/03 A3012 RMK A01 T01300030  RH  051%=      5-min Rain = 0
KOD1 171540Z 00020KT 13/03 A3012 RMK A01 T01290030  RH  051%=      5-min Rain = 0
KOD1 171541Z 01019KT 13/03 A3012 RMK A01 T01300030  RH  051%=      5-min Rain = 0
KOD1 171542Z 00022KT 13/03 A3012 RMK A01 T01300030  RH  051%=      5-min Rain = 0
KOD1 171543Z 01019G25KT 13/03 A3011 RMK A01 T01310031  RH  051%=      5-min Rain = 0
KOD1 171544Z 00021KT 13/03 A3011 RMK A01 T01310030  RH  050%=      5-min Rain = 0
KOD1 171545Z 00019KT 13/03 A3011 RMK A01 T01310031  RH  050%=      5-min Rain = 0
KOD1 171546Z 00017KT 13/03 A3011 RMK A01 T01330032  RH  050%=      5-min Rain = 0
KOD1 171547Z 01020KT 13/03 A3011 RMK A01 T01340031  RH  050%=      5-min Rain = 0
KOD1 171548Z 02020KT 13/03 A3011 RMK A01 T01320030  RH  050%=      5-min Rain = 0
KOD1 171549Z 02018G24KT 13/03 A3011 RMK A01 T01330031  RH  050%=      5-min Rain = 0
KOD1 171550Z 02018G24KT 13/03 A3011 RMK A01 T01340031  RH  050%=      5-min Rain = 0
KOD1 171551Z 01021G26KT 13/03 A3011 RMK A01 T01340030  RH  049%=      5-min Rain = 0
KOD1 171552Z 00018G23KT 13/03 A3011 RMK A01 T01330030  RH  050%=      5-min Rain = 0
KOD1 171553Z 01019KT 13/03 A3011 RMK A01 T01340031  RH  050%=      5-min Rain = 0
KOD1 171554Z 02017KT 14/03 A3011 RMK A01 T01350032  RH  050%=      5-min Rain = 0
KOD1 171555Z 01018KT 14/03 A3011 RMK A01 T01370032  RH  049%=      5-min Rain = 0
KOD1 171556Z 01020G25KT 14/03 A3011 RMK A01 T01370031  RH  049%=      5-min Rain = 0
KOD1 171557Z 01021KT 14/03 A3011 RMK A01 T01350030  RH  049%=      5-min Rain = 0
KOD1 171558Z 01021KT 14/03 A3011 RMK A01 T01350031  RH  049%=      5-min Rain = 0
KOD1 171559Z 01020G26KT 14/03 A3011 RMK A01 T01350031  RH  049%=      5-min Rain = 0
KOD1 171600Z 01021KT 14/03 A3011 RMK A01 T01350031  RH  049%=      5-min Rain = 0
KOD1 171601Z 00020KT 14/03 A3011 RMK A01 T01350031  RH  049%=      5-min Rain = 0
KOD1 171602Z 01020KT 14/03 A3011 RMK A01 T01360031  RH  049%=      5-min Rain = 0
KOD1 171603Z 01020G25KT 14/03 A3011 RMK A01 T01360032  RH  049%=      5-min Rain = 0
KOD1 171604Z 01020KT 14/03 A3011 RMK A01 T01360031  RH  049%=      5-min Rain = 0
KOD1 171605Z 01016KT 14/03 A3012 RMK A01 T01370032  RH  049%=      5-min Rain = 0
KOD1 171606Z 01018KT 14/03 A3012 RMK A01 T01390033  RH  049%=      5-min Rain = 0
KOD1 171607Z 01020KT 14/03 A3012 RMK A01 T01390032  RH  048%=      5-min Rain = 0
KOD1 171608Z 01019KT 14/03 A3012 RMK A01 T01400032  RH  048%=      5-min Rain = 0
KOD1 171609Z 01020G26KT 14/03 A3012 RMK A01 T01390031  RH  048%=      5-min Rain = 0
KOD1 171610Z 01015G21KT 14/03 A3012 RMK A01 T01410033  RH  048%=      5-min Rain = 0
KOD1 171611Z 01019G24KT 14/03 A3012 RMK A01 T01420033  RH  048%=      5-min Rain = 0
KOD1 171612Z 01019KT 14/03 A3012 RMK A01 T01410031  RH  047%=      5-min Rain = 0
KOD1 171613Z 02018KT 14/03 A3012 RMK A01 T01410032  RH  048%=      5-min Rain = 0
KOD1 171614Z 02017KT 14/03 A3012 RMK A01 T01410031  RH  048%=      5-min Rain = 0
KOD1 171615Z 02014G19KT 14/03 A3012 RMK A01 T01430033  RH  048%=      5-min Rain = 0
KOD1 171616Z 02014G20KT 14/03 A3012 RMK A01 T01440033  RH  047%=      5-min Rain = 0
KOD1 171617Z 01020KT 14/03 A3012 RMK A01 T01430031  RH  047%=      5-min Rain = 0
KOD1 171618Z 01018G23KT 14/03 A3012 RMK A01 T01420031  RH  047%=      5-min Rain = 0
KOD1 171619Z 01017KT 14/03 A3012 RMK A01 T01430032  RH  047%=      5-min Rain = 0
KOD1 171620Z 01018G25KT 15/03 A3012 RMK A01 T01450033  RH  047%=      5-min Rain = 0
KOD1 171621Z 01022KT 14/03 A3012 RMK A01 T01440031  RH  047%=      5-min Rain = 0
KOD1 171622Z 01018KT 14/03 A3012 RMK A01 T01420031  RH  047%=      5-min Rain = 0
KOD1 171623Z 01018KT 14/03 A3012 RMK A01 T01430032  RH  047%=      5-min Rain = 0
KOD1 171624Z 01017KT 14/03 A3012 RMK A01 T01420031  RH  047%=      5-min Rain = 0
KOD1 171625Z 00018KT 14/03 A3012 RMK A01 T01440032  RH  047%=      5-min Rain = 0
KOD1 171626Z 01016KT 14/03 A3012 RMK A01 T01430031  RH  047%=      5-min Rain = 0
KOD1 171627Z 02018KT 15/03 A3012 RMK A01 T01450032  RH  047%=      5-min Rain = 0
KOD1 171628Z 02018KT 14/03 A3012 RMK A01 T01440031  RH  046%=      5-min Rain = 0
KOD1 171629Z 02017KT 15/03 A3011 RMK A01 T01450032  RH  046%=      5-min Rain = 0
KOD1 171630Z 01020KT 15/03 A3011 RMK A01 T01450032  RH  046%=      5-min Rain = 0
KOD1 171631Z 01020KT 14/03 A3011 RMK A01 T01440031  RH  046%=      5-min Rain = 0
KOD1 171632Z 01017G22KT 15/03 A3011 RMK A01 T01450031  RH  046%=      5-min Rain = 0
KOD1 171633Z 00021KT 15/03 A3011 RMK A01 T01460031  RH  046%=      5-min Rain = 0
KOD1 171634Z 00017KT 15/03 A3011 RMK A01 T01450031  RH  046%=      5-min Rain = 0
KOD1 171635Z 01021KT 15/03 A3011 RMK A01 T01450031  RH  046%=      5-min Rain = 0
KOD1 171636Z 02016KT 15/03 A3011 RMK A01 T01460032  RH  046%=      5-min Rain = 0
KOD1 171637Z 02016KT 15/03 A3011 RMK A01 T01480032  RH  046%=      5-min Rain = 0
KOD1 171638Z 01017G22KT 15/03 A3011 RMK A01 T01490033  RH  046%=      5-min Rain = 0
KOD1 171639Z 01016KT 15/03 A3011 RMK A01 T01490032  RH  045%=      5-min Rain = 0
KOD1 171640Z 02016KT 15/03 A3011 RMK A01 T01510033  RH  045%=      5-min Rain = 0
KOD1 171641Z 01019KT 15/03 A3011 RMK A01 T01500031  RH  045%=      5-min Rain = 0
KOD1 171642Z 02016G22KT 15/03 A3011 RMK A01 T01500033  RH  045%=      5-min Rain = 0
KOD1 171643Z 01014G19KT 15/03 A3011 RMK A01 T01510032  RH  045%=      5-min Rain = 0
KOD1 171644Z 01016KT 15/03 A3011 RMK A01 T01530033  RH  044%=      5-min Rain = 0
KOD1 171645Z 01018G23KT 15/03 A3011 RMK A01 T01510031  RH  044%=      5-min Rain = 0
KOD1 171646Z 01018G24KT 15/03 A3011 RMK A01 T01500031  RH  045%=      5-min Rain = 0
KOD1 171647Z 02018KT 15/03 A3011 RMK A01 T01490032  RH  045%=      5-min Rain = 0
KOD1 171648Z 01019KT 15/03 A3011 RMK A01 T01480030  RH  045%=      5-min Rain = 0
KOD1 171649Z 01017KT 15/03 A3011 RMK A01 T01480031  RH  046%=      5-min Rain = 0
KOD1 171650Z 01015KT 15/03 A3011 RMK A01 T01500032  RH  045%=      5-min Rain = 0
KOD1 171651Z 01017G22KT 15/03 A3011 RMK A01 T01530033  RH  045%=      5-min Rain = 0
KOD1 171652Z 00017G22KT 15/03 A3011 RMK A01 T01510031  RH  044%=      5-min Rain = 0
KOD1 171653Z 00017KT 15/03 A3011 RMK A01 T01500031  RH  045%=      5-min Rain = 0
KOD1 171654Z 01016G23KT 15/03 A3011 RMK A01 T01510032  RH  045%=      5-min Rain = 0
KOD1 171655Z 01022KT 15/03 A3011 RMK A01 T01520031  RH  044%=      5-min Rain = 0
KOD1 171656Z 00018KT 15/03 A3011 RMK A01 T01490030  RH  045%=      5-min Rain = 0
KOD1 171657Z 01019KT 15/03 A3011 RMK A01 T01500031  RH  045%=      5-min Rain = 0
KOD1 171658Z 01018KT 15/03 A3011 RMK A01 T01510031  RH  045%=      5-min Rain = 0
KOD1 171659Z 02017G22KT 15/03 A3011 RMK A01 T01520031  RH  044%=      5-min Rain = 0
KOD1 171700Z 01017KT 15/03 A3011 RMK A01 T01530032  RH  044%=      5-min Rain = 0
KOD1 171701Z 01018KT 15/03 A3011 RMK A01 T01530031  RH  044%=      5-min Rain = 0
KOD1 171702Z 01019KT 15/03 A3011 RMK A01 T01520030  RH  044%=      5-min Rain = 0
KOD1 171703Z 01017KT 15/03 A3011 RMK A01 T01520030  RH  044%=      5-min Rain = 0
KOD1 171704Z 01016KT 15/03 A3011 RMK A01 T01530031  RH  044%=      5-min Rain = 0
KOD1 171705Z 02015KT 16/03 A3011 RMK A01 T01550031  RH  044%=      5-min Rain = 0
KOD1 171706Z 02017KT 15/03 A3011 RMK A01 T01530030  RH  044%=      5-min Rain = 0
KOD1 171707Z 02018KT 15/03 A3011 RMK A01 T01530030  RH  044%=      5-min Rain = 0
KOD1 171708Z 02015G20KT 15/03 A3011 RMK A01 T01520030  RH  044%=      5-min Rain = 0
KOD1 171709Z 03017KT 16/03 A3011 RMK A01 T01550031  RH  043%=      5-min Rain = 0
KOD1 171710Z 02014KT 16/03 A3011 RMK A01 T01560032  RH  043%=      5-min Rain = 0
KOD1 171711Z 01015KT 16/03 A3011 RMK A01 T01560031  RH  043%=      5-min Rain = 0
KOD1 171712Z 00017KT 16/03 A3011 RMK A01 T01560031  RH  043%=      5-min Rain = 0
KOD1 171713Z 01016KT 16/03 A3011 RMK A01 T01560032  RH  043%=      5-min Rain = 0
KOD1 171714Z 01016KT 16/03 A3011 RMK A01 T01560032  RH  043%=      5-min Rain = 0
KOD1 171715Z 00015KT 16/03 A3011 RMK A01 T01560032  RH  043%=      5-min Rain = 0
KOD1 171716Z 01018KT 16/03 A3011 RMK A01 T01560032  RH  043%=      5-min Rain = 0
KOD1 171717Z 01017KT 16/03 A3011 RMK A01 T01560031  RH  043%=      5-min Rain = 0
KOD1 171718Z 00017KT 16/03 A3011 RMK A01 T01560031  RH  043%=      5-min Rain = 0
KOD1 171719Z 01017KT 16/03 A3011 RMK A01 T01560031  RH  043%=      5-min Rain = 0
KOD1 171720Z 01018G23KT 16/03 A3011 RMK A01 T01560031  RH  043%=      5-min Rain = 0
KOD1 171721Z 01020KT 16/03 A3011 RMK A01 T01550030  RH  043%=      5-min Rain = 0
KOD1 171722Z 01017G22KT 15/03 A3011 RMK A01 T01540031  RH  044%=      5-min Rain = 0
KOD1 171723Z 01016KT 16/03 A3011 RMK A01 T01560031  RH  043%=      5-min Rain = 0
KOD1 171724Z 02014KT 16/03 A3011 RMK A01 T01560032  RH  043%=      5-min Rain = 0
KOD1 171725Z 02019KT 16/03 A3011 RMK A01 T01580031  RH  042%=      5-min Rain = 0
KOD1 171726Z 02017KT 16/03 A3011 RMK A01 T01560030  RH  043%=      5-min Rain = 0
KOD1 171727Z 03016KT 16/03 A3011 RMK A01 T01570032  RH  043%=      5-min Rain = 0
KOD1 171728Z 01017KT 16/03 A3011 RMK A01 T01580032  RH  043%=      5-min Rain = 0
KOD1 171729Z 02019KT 16/03 A3011 RMK A01 T01570031  RH  043%=      5-min Rain = 0
KOD1 171730Z 02018KT 16/03 A3011 RMK A01 T01560030  RH  043%=      5-min Rain = 0
KOD1 171731Z 03016G22KT 16/03 A3011 RMK A01 T01580032  RH  043%=      5-min Rain = 0
KOD1 171732Z 02015G20KT 16/03 A3011 RMK A01 T01600033  RH  043%=      5-min Rain = 0
KOD1 171733Z 02017KT 16/03 A3011 RMK A01 T01610033  RH  042%=      5-min Rain = 0
KOD1 171734Z 03018KT 16/03 A3011 RMK A01 T01610032  RH  042%=      5-min Rain = 0
KOD1 171735Z 02016KT 16/03 A3011 RMK A01 T01590031  RH  042%=      5-min Rain = 0
KOD1 171736Z 03012KT 16/03 A3011 RMK A01 T01570032  RH  043%=      5-min Rain = 0
KOD1 171737Z 02018G23KT 16/03 A3011 RMK A01 T01610033  RH  042%=      5-min Rain = 0
KOD1 171738Z 02018KT 16/03 A3011 RMK A01 T01610032  RH  042%=      5-min Rain = 0
KOD1 171739Z 01016KT 16/03 A3011 RMK A01 T01590032  RH  042%=      5-min Rain = 0
KOD1 171740Z 01016KT 16/03 A3011 RMK A01 T01600033  RH  043%=      5-min Rain = 0
KOD1 171741Z 01016G21KT 16/03 A3011 RMK A01 T01620033  RH  042%=      5-min Rain = 0
KOD1 171742Z 02016KT 16/03 A3011 RMK A01 T01610032  RH  042%=      5-min Rain = 0
KOD1 171743Z 02018KT 16/03 A3011 RMK A01 T01610032  RH  042%=      5-min Rain = 0
KOD1 171744Z 02018KT 16/03 A3011 RMK A01 T01600031  RH  042%=      5-min Rain = 0
KOD1 171745Z 02017KT 16/03 A3011 RMK A01 T01590031  RH  042%=      5-min Rain = 0
KOD1 171746Z 02015KT 16/03 A3011 RMK A01 T01620033  RH  042%=      5-min Rain = 0
KOD1 171747Z 02013KT 16/03 A3011 RMK A01 T01620032  RH  042%=      5-min Rain = 0
KOD1 171748Z 02011KT 16/03 A3011 RMK A01 T01640033  RH  042%=      5-min Rain = 0
KOD1 171749Z 01011KT 17/03 A3011 RMK A01 T01660034  RH  041%=      5-min Rain = 0
KOD1 171750Z 01016G21KT 17/03 A3011 RMK A01 T01660033  RH  041%=      5-min Rain = 0
KOD1 171751Z 01015KT 16/03 A3011 RMK A01 T01640032  RH  041%=      5-min Rain = 0
KOD1 171752Z 01014G19KT 17/03 A3011 RMK A01 T01650034  RH  041%=      5-min Rain = 0
KOD1 171753Z 03016KT 17/03 A3011 RMK A01 T01660032  RH  041%=      5-min Rain = 0
KOD1 171754Z 01013KT 17/03 A3011 RMK A01 T01660033  RH  041%=      5-min Rain = 0
KOD1 171755Z 02017KT 17/03 A3011 RMK A01 T01660033  RH  041%=      5-min Rain = 0
KOD1 171756Z 02017KT 16/03 A3011 RMK A01 T01640032  RH  041%=      5-min Rain = 0
KOD1 171757Z 02014KT 16/03 A3011 RMK A01 T01630032  RH  042%=      5-min Rain = 0
KOD1 171758Z 03015KT 17/03 A3011 RMK A01 T01650033  RH  041%=      5-min Rain = 0
KOD1 171759Z 03017KT 17/03 A3011 RMK A01 T01670033  RH  041%=      5-min Rain = 0
KOD1 171800Z 01015G20KT 17/03 A3011 RMK A01 T01680034  RH  041%=      5-min Rain = 0
KOD1 171801Z 02013KT 17/03 A3011 RMK A01 T01680033  RH  041%=      5-min Rain = 0
KOD1 171802Z 02012KT 17/03 A3011 RMK A01 T01680034  RH  041%=      5-min Rain = 0
KOD1 171803Z 02013KT 17/04 A3011 RMK A01 T01720036  RH  040%=      5-min Rain = 0
KOD1 171804Z 02013KT 17/03 A3011 RMK A01 T01720034  RH  040%=      5-min Rain = 0
KOD1 171805Z 02015KT 17/03 A3011 RMK A01 T01720034  RH  040%=      5-min Rain = 0
KOD1 171806Z 00015KT 17/03 A3011 RMK A01 T01710034  RH  040%=      5-min Rain = 0
KOD1 171807Z 01015KT 17/03 A3011 RMK A01 T01720034  RH  040%=      5-min Rain = 0
KOD1 171808Z 35017KT 17/03 A3011 RMK A01 T01700032  RH  040%=      5-min Rain = 0
KOD1 171809Z 35016KT 17/03 A3011 RMK A01 T01680032  RH  040%=      5-min Rain = 0
KOD1 171810Z 01016KT 17/03 A3011 RMK A01 T01700033  RH  040%=      5-min Rain = 0
KOD1 171811Z 01015KT 17/03 A3011 RMK A01 T01690031  RH  040%=      5-min Rain = 0
KOD1 171812Z 00015KT 17/03 A301 RMK A01 T01690032  RH  040%=      5-min Rain = 0
KOD1 171813Z 36016KT 17/03 A301 RMK A01 T01700032  RH  040%=      5-min Rain = 0
KOD1 171814Z 02017KT 17/03 A301 RMK A01 T01720032  RH  039%=      5-min Rain = 0
KOD1 171815Z 02017KT 17/03 A301 RMK A01 T01710030  RH  039%=      5-min Rain = 0
KOD1 171816Z 01016KT 17/03 A301 RMK A01 T01720031  RH  039%=      5-min Rain = 0
KOD1 171817Z 01014KT 17/03 A301 RMK A01 T01720031  RH  039%=      5-min Rain = 0
KOD1 171818Z 02015KT 17/03 A301 RMK A01 T01720031  RH  039%=      5-min Rain = 0
KOD1 171819Z 00013G18KT 17/03 A301 RMK A01 T01720032  RH  039%=      5-min Rain = 0
KOD1 171820Z 01013KT 17/03 A301 RMK A01 T01730031  RH  039%=      5-min Rain = 0
KOD1 171821Z 00018KT 18/03 A301 RMK A01 T01750031  RH  038%=      5-min Rain = 0
KOD1 171822Z 01018KT 17/03 A301 RMK A01 T01720028  RH  038%=      5-min Rain = 0
KOD1 171823Z 01016KT 17/03 A301 RMK A01 T01680027  RH  039%=      5-min Rain = 0
KOD1 171824Z 01016KT 17/03 A301 RMK A01 T01710029  RH  039%=      5-min Rain = 0
KOD1 171825Z 00018KT 17/03 A301 RMK A01 T01720028  RH  038%=      5-min Rain = 0
KOD1 171826Z 00017KT 17/03 A301 RMK A01 T01710028  RH  038%=      5-min Rain = 0
KOD1 171827Z 01020KT 17/03 A301 RMK A01 T01720028  RH  038%=      5-min Rain = 0
KOD1 171828Z 00019KT 17/03 A301 RMK A01 T01700027  RH  038%=      5-min Rain = 0
KOD1 171829Z 01018KT 17/03 A301 RMK A01 T01710028  RH  038%=      5-min Rain = 0
KOD1 171830Z 02016KT 17/03 A301 RMK A01 T01720027  RH  038%=      5-min Rain = 0
KOD1 171831Z 01015KT 17/03 A301 RMK A01 T01730028  RH  038%=      5-min Rain = 0
KOD1 171832Z 02014G19KT 18/03 A301 RMK A01 T01750028  RH  037%=      5-min Rain = 0
KOD1 171833Z 01018KT 17/03 A301 RMK A01 T01740027  RH  037%=      5-min Rain = 0
KOD1 171834Z 01019KT 17/03 A301 RMK A01 T01730027  RH  038%=      5-min Rain = 0
KOD1 171835Z 02018KT 17/03 A301 RMK A01 T01700027  RH  038%=      5-min Rain = 0
KOD1 171836Z 01014KT 17/03 A301 RMK A01 T01700028  RH  039%=      5-min Rain = 0
KOD1 171837Z 01016KT 17/03 A301 RMK A01 T01710028  RH  038%=      5-min Rain = 0
KOD1 171838Z 00017KT 17/03 A301 RMK A01 T01720028  RH  038%=      5-min Rain = 0
KOD1 171839Z 00017KT 17/03 A301 RMK A01 T01720028  RH  038%=      5-min Rain = 0
KOD1 171840Z 01016KT 17/03 A301 RMK A01 T01730029  RH  038%=      5-min Rain = 0
KOD1 171841Z 01018KT 17/03 A301 RMK A01 T01720027  RH  038%=      5-min Rain = 0
KOD1 171842Z 00014KT 17/03 A301 RMK A01 T01700027  RH  038%=      5-min Rain = 0
KOD1 171843Z 00015KT 17/03 A301 RMK A01 T01740029  RH  038%=      5-min Rain = 0
KOD1 171844Z 01013KT 17/03 A3009 RMK A01 T01740028  RH  038%=      5-min Rain = 0
KOD1 171845Z 02016G21KT 18/03 A301 RMK A01 T01750027  RH  037%=      5-min Rain = 0
KOD1 171846Z 02015KT 18/03 A301 RMK A01 T01750028  RH  037%=      5-min Rain = 0
KOD1 171847Z 01014G19KT 17/03 A301 RMK A01 T01740027  RH  037%=      5-min Rain = 0
KOD1 171848Z 01013KT 18/03 A301 RMK A01 T01750028  RH  037%=      5-min Rain = 0
KOD1 171849Z 02013KT 18/03 A301 RMK A01 T01760027  RH  037%=      5-min Rain = 0
KOD1 171850Z 01013KT 17/03 A301 RMK A01 T01740026  RH  037%=      5-min Rain = 0
KOD1 171851Z 01014KT 17/03 A301 RMK A01 T01740028  RH  037%=      5-min Rain = 0
KOD1 171852Z 36015KT 17/03 A301 RMK A01 T01740028  RH  037%=      5-min Rain = 0
KOD1 171853Z 01017KT 18/03 A301 RMK A01 T01760028  RH  037%=      5-min Rain = 0
KOD1 171854Z 01016KT 17/03 A301 RMK A01 T01740027  RH  037%=      5-min Rain = 0
KOD1 171855Z 00015KT 17/03 A301 RMK A01 T01740027  RH  037%=      5-min Rain = 0
KOD1 171856Z 00010KT 17/03 A3009 RMK A01 T01740027  RH  037%=      5-min Rain = 0
KOD1 171857Z 01009KT 17/03 A3009 RMK A01 T01720028  RH  038%=      5-min Rain = 0
KOD1 171858Z 02011KT 18/03 A3009 RMK A01 T01750028  RH  037%=      5-min Rain = 0
KOD1 171859Z 01013G18KT 18/03 A3009 RMK A01 T01780029  RH  037%=      5-min Rain = 0
KOD1 171900Z 02017KT 18/03 A3009 RMK A01 T01790028  RH  037%=      5-min Rain = 0
KOD1 171901Z 01014KT 18/03 A3009 RMK A01 T01770028  RH  037%=      5-min Rain = 0
KOD1 171902Z 36012KT 18/03 A3009 RMK A01 T01770028  RH  037%=      5-min Rain = 0
KOD1 171903Z 36011KT 17/03 A3009 RMK A01 T01740027  RH  037%=      5-min Rain = 0
KOD1 171904Z 36012KT 18/03 A3009 RMK A01 T01760030  RH  037%=      5-min Rain = 0
KOD1 171905Z 01013G18KT 18/03 A3009 RMK A01 T01780029  RH  037%=      5-min Rain = 0
KOD1 171906Z 01013KT 18/03 A3009 RMK A01 T01770029  RH  037%=      5-min Rain = 0
KOD1 171907Z 01013KT 18/03 A3009 RMK A01 T01760029  RH  037%=      5-min Rain = 0
KOD1 171908Z 01013KT 18/03 A3009 RMK A01 T01780030  RH  037%=      5-min Rain = 0
KOD1 171909Z 36012KT 18/03 A3009 RMK A01 T01810030  RH  036%=      5-min Rain = 0
KOD1 171910Z 35012KT 18/03 A3009 RMK A01 T01810030  RH  037%=      5-min Rain = 0
KOD1 171911Z 35015KT 18/03 A3008 RMK A01 T01810030  RH  036%=      5-min Rain = 0
KOD1 171912Z 34014KT 18/03 A3008 RMK A01 T01790029  RH  037%=      5-min Rain = 0
KOD1 171913Z 35016KT 18/03 A3008 RMK A01 T01790030  RH  037%=      5-min Rain = 0
KOD1 171914Z 35015KT 18/03 A3008 RMK A01 T01770030  RH  037%=      5-min Rain = 0
KOD1 171915Z 35017KT 18/03 A3008 RMK A01 T01760029  RH  037%=      5-min Rain = 0
KOD1 171916Z 35013KT 18/03 A3008 RMK A01 T01750029  RH  038%=      5-min Rain = 0
KOD1 171917Z 34011KT 18/03 A3008 RMK A01 T01770031  RH  038%=      5-min Rain = 0
KOD1 171918Z 35014KT 18/03 A3008 RMK A01 T01770029  RH  037%=      5-min Rain = 0
KOD1 171919Z 36013G19KT 18/03 A3008 RMK A01 T01770032  RH  038%=      5-min Rain = 0
KOD1 171920Z 36014KT 18/03 A3008 RMK A01 T01790031  RH  037%=      5-min Rain = 0
KOD1 171921Z 34014KT 18/03 A3008 RMK A01 T01800031  RH  037%=      5-min Rain = 0
KOD1 171922Z 35013G18KT 18/03 A3008 RMK A01 T01800032  RH  037%=      5-min Rain = 0
KOD1 171923Z 34013KT 18/03 A3008 RMK A01 T01800031  RH  037%=      5-min Rain = 0
KOD1 171924Z 34014KT 18/03 A3008 RMK A01 T01780031  RH  038%=      5-min Rain = 0
KOD1 171925Z 33013KT 18/03 A3008 RMK A01 T01770030  RH  038%=      5-min Rain = 0
KOD1 171926Z 35011KT 18/03 A3008 RMK A01 T01760031  RH  038%=      5-min Rain = 0
KOD1 171927Z 00014KT 18/03 A3008 RMK A01 T01760030  RH  038%=      5-min Rain = 0
KOD1 171928Z 00010KT 17/03 A3008 RMK A01 T01740030  RH  038%=      5-min Rain = 0
KOD1 171929Z 34009KT 17/03 A3008 RMK A01 T01740031  RH  038%=      5-min Rain = 0
KOD1 171930Z 35012KT 18/03 A3008 RMK A01 T01750031  RH  038%=      5-min Rain = 0
KOD1 171931Z 00013KT 18/03 A3008 RMK A01 T01750030  RH  038%=      5-min Rain = 0
KOD1 171932Z 01013KT 18/03 A3008 RMK A01 T01770031  RH  038%=      5-min Rain = 0
KOD1 171933Z 35014KT 18/03 A3008 RMK A01 T01780031  RH  038%=      5-min Rain = 0
KOD1 171934Z 35013KT 18/03 A3008 RMK A01 T01770030  RH  038%=      5-min Rain = 0
KOD1 171935Z 36011KT 18/03 A3007 RMK A01 T01770032  RH  038%=      5-min Rain = 0
KOD1 171936Z 35012KT 18/03 A3007 RMK A01 T01820033  RH  037%=      5-min Rain = 0
KOD1 171937Z 35012KT 18/03 A3007 RMK A01 T01830031  RH  036%=      5-min Rain = 0
KOD1 171938Z 34010KT 18/03 A3007 RMK A01 T01790030  RH  037%=      5-min Rain = 0
KOD1 171939Z 35014KT 18/03 A3007 RMK A01 T01780030  RH  037%=      5-min Rain = 0
KOD1 171940Z 35014KT 18/03 A3007 RMK A01 T01770030  RH  037%=      5-min Rain = 0
KOD1 171941Z 34011G16KT 18/03 A3007 RMK A01 T01760031  RH  038%=      5-min Rain = 0
KOD1 171942Z 35015KT 18/03 A3007 RMK A01 T01790032  RH  037%=      5-min Rain = 0
KOD1 171943Z 34013KT 18/03 A3007 RMK A01 T01780030  RH  037%=      5-min Rain = 0
KOD1 171944Z 00011KT 18/03 A3007 RMK A01 T01770030  RH  038%=      5-min Rain = 0
KOD1 171945Z 01010KT 18/03 A3006 RMK A01 T01780030  RH  037%=      5-min Rain = 0
KOD1 171946Z 01009KT 18/03 A3006 RMK A01 T01810032  RH  037%=      5-min Rain = 0
KOD1 171947Z 01014G19KT 18/03 A3006 RMK A01 T01840031  RH  036%=      5-min Rain = 0
KOD1 171948Z 01014G19KT 18/03 A3006 RMK A01 T01810029  RH  036%=      5-min Rain = 0
KOD1 171949Z 01015KT 18/03 A3006 RMK A01 T01800029  RH  036%=      5-min Rain = 0
KOD1 171950Z 00016KT 18/03 A3006 RMK A01 T01800028  RH  036%=      5-min Rain = 0
KOD1 171951Z 36015KT 18/03 A3006 RMK A01 T01780029  RH  037%=      5-min Rain = 0
KOD1 171952Z 00015KT 18/03 A3006 RMK A01 T01780029  RH  037%=      5-min Rain = 0
KOD1 171953Z 01015KT 18/03 A3006 RMK A01 T01780029  RH  037%=      5-min Rain = 0
KOD1 171954Z 00012KT 18/03 A3006 RMK A01 T01770028  RH  037%=      5-min Rain = 0
KOD1 171955Z 01012KT 18/03 A3006 RMK A01 T01770030  RH  037%=      5-min Rain = 0
KOD1 171956Z 35012KT 18/03 A3006 RMK A01 T01810031  RH  037%=      5-min Rain = 0
KOD1 171957Z 34013KT 18/03 A3006 RMK A01 T01830030  RH  036%=      5-min Rain = 0
KOD1 171958Z 35016KT 18/03 A3006 RMK A01 T01810029  RH  036%=      5-min Rain = 0
KOD1 171959Z 01016KT 18/03 A3006 RMK A01 T01810028  RH  036%=      5-min Rain = 0
KOD1 172000Z 01013KT 18/03 A3006 RMK A01 T01800028  RH  036%=      5-min Rain = 0
KOD1 172001Z 02014KT 18/03 A3006 RMK A01 T01810028  RH  036%=      5-min Rain = 0
KOD1 172002Z 02011KT 18/03 A3006 RMK A01 T01840030  RH  036%=      5-min Rain = 0
KOD1 172003Z 01014G19KT 19/03 A3006 RMK A01 T01870029  RH  035%=      5-min Rain = 0
KOD1 172004Z 00015KT 18/03 A3006 RMK A01 T01830027  RH  035%=      5-min Rain = 0
KOD1 172005Z 00012KT 18/03 A3006 RMK A01 T01810028  RH  036%=      5-min Rain = 0
KOD1 172006Z 00012KT 18/03 A3006 RMK A01 T01810027  RH  036%=      5-min Rain = 0
KOD1 172007Z 35012KT 18/03 A3006 RMK A01 T01820029  RH  036%=      5-min Rain = 0
KOD1 172008Z 34012KT 18/03 A3005 RMK A01 T01820030  RH  036%=      5-min Rain = 0
KOD1 172009Z 00015KT 18/03 A3005 RMK A01 T01840030  RH  036%=      5-min Rain = 0
KOD1 172010Z 36013KT 18/03 A3005 RMK A01 T01820027  RH  035%=      5-min Rain = 0
KOD1 172011Z 36012KT 18/03 A3005 RMK A01 T01820028  RH  036%=      5-min Rain = 0
KOD1 172012Z 35013KT 18/03 A3005 RMK A01 T01820028  RH  036%=      5-min Rain = 0
KOD1 172013Z 34011KT 18/03 A3005 RMK A01 T01840030  RH  036%=      5-min Rain = 0
KOD1 172014Z 35012KT 18/03 A3005 RMK A01 T01830028  RH  036%=      5-min Rain = 0
KOD1 172015Z 35009KT 18/03 A3005 RMK A01 T01820030  RH  036%=      5-min Rain = 0
KOD1 172016Z 00011KT 19/03 A3005 RMK A01 T01850030  RH  036%=      5-min Rain = 0
KOD1 172017Z 36014KT 19/03 A3005 RMK A01 T01870029  RH  035%=      5-min Rain = 0
KOD1 172018Z 00013KT 19/03 A3005 RMK A01 T01850027  RH  035%=      5-min Rain = 0
KOD1 172019Z 35012KT 18/03 A3004 RMK A01 T01830028  RH  035%=      5-min Rain = 0
KOD1 172020Z 00012KT 19/03 A3005 RMK A01 T01860029  RH  035%=      5-min Rain = 0
KOD1 172021Z 00015KT 19/03 A3005 RMK A01 T01860026  RH  034%=      5-min Rain = 0
KOD1 172022Z 00012KT 18/02 A3004 RMK A01 T01830024  RH  035%=      5-min Rain = 0
KOD1 172023Z 36010G16KT 18/03 A3004 RMK A01 T01830026  RH  035%=      5-min Rain = 0
KOD1 172024Z 36016KT 18/02 A3004 RMK A01 T01840023  RH  034%=      5-min Rain = 0
KOD1 172025Z 01013KT 18/02 A3004 RMK A01 T01830023  RH  034%=      5-min Rain = 0
KOD1 172026Z 00011KT 18/02 A3004 RMK A01 T01830024  RH  035%=      5-min Rain = 0
KOD1 172027Z 35010KT 19/03 A3004 RMK A01 T01870025  RH  034%=      5-min Rain = 0
KOD1 172028Z 35015KT 19/02 A3004 RMK A01 T01890024  RH  033%=      5-min Rain = 0
KOD1 172029Z 35017KT 19/02 A3004 RMK A01 T01860023  RH  033%=      5-min Rain = 0
KOD1 172030Z 00014KT 19/02 A3005 RMK A01 T01860023  RH  034%=      5-min Rain = 0
KOD1 172031Z 35014KT 19/02 A3005 RMK A01 T01860022  RH  033%=      5-min Rain = 0
KOD1 172032Z 36014KT 19/02 A3005 RMK A01 T01860022  RH  033%=      5-min Rain = 0
KOD1 172033Z 00013KT 19/02 A3005 RMK A01 T01850022  RH  034%=      5-min Rain = 0
KOD1 172034Z 35013KT 18/02 A3005 RMK A01 T01840021  RH  033%=      5-min Rain = 0
KOD1 172035Z 00012KT 18/02 A3005 RMK A01 T01830019  RH  033%=      5-min Rain = 0
KOD1 172036Z 01015KT 19/02 A3005 RMK A01 T01850020  RH  033%=      5-min Rain = 0
KOD1 172037Z 01013KT 18/02 A3005 RMK A01 T01840021  RH  034%=      5-min Rain = 0
KOD1 172038Z 01014KT 19/02 A3005 RMK A01 T01850021  RH  033%=      5-min Rain = 0
KOD1 172039Z 02015KT 18/02 A3005 RMK A01 T01840021  RH  034%=      5-min Rain = 0
KOD1 172040Z 01013KT 18/02 A3004 RMK A01 T01830021  RH  034%=      5-min Rain = 0
KOD1 172041Z 01012KT 18/02 A3004 RMK A01 T01840021  RH  034%=      5-min Rain = 0
KOD1 172042Z 00011KT 18/02 A3004 RMK A01 T01830020  RH  034%=      5-min Rain = 0
KOD1 172043Z 00010KT 18/02 A3004 RMK A01 T01820019  RH  034%=      5-min Rain = 0
KOD1 172044Z 35012KT 18/02 A3004 RMK A01 T01830020  RH  033%=      5-min Rain = 0
KOD1 172045Z 35014KT 19/02 A3004 RMK A01 T01850019  RH  033%=      5-min Rain = 0
KOD1 172046Z 35013KT 18/02 A3004 RMK A01 T01830018  RH  033%=      5-min Rain = 0
KOD1 172047Z 00010KT 18/02 A3004 RMK A01 T01830020  RH  033%=      5-min Rain = 0
KOD1 172048Z 36011KT 19/02 A3004 RMK A01 T01870020  RH  033%=      5-min Rain = 0
KOD1 172049Z 01013KT 19/02 A3004 RMK A01 T01860017  RH  032%=      5-min Rain = 0
KOD1 172050Z 02011KT 18/02 A3004 RMK A01 T01830018  RH  033%=      5-min Rain = 0
KOD1 172051Z 02011KT 18/02 A3004 RMK A01 T01830019  RH  033%=      5-min Rain = 0
KOD1 172052Z 02009KT 18/02 A3004 RMK A01 T01820019  RH  033%=      5-min Rain = 0
KOD1 172053Z 01013G19KT 18/02 A3004 RMK A01 T01840019  RH  033%=      5-min Rain = 0
KOD1 172054Z 01014KT 19/02 A3004 RMK A01 T01850018  RH  033%=      5-min Rain = 0
KOD1 172055Z 01011KT 18/02 A3004 RMK A01 T01840016  RH  032%=      5-min Rain = 0
KOD1 172056Z 01008KT 18/02 A3004 RMK A01 T01830017  RH  033%=      5-min Rain = 0
KOD1 172057Z 01010KT 19/02 A3004 RMK A01 T01850018  RH  033%=      5-min Rain = 0
KOD1 172058Z 01010KT 18/02 A3004 RMK A01 T01840016  RH  032%=      5-min Rain = 0
KOD1 172059Z 00008KT 18/02 A3004 RMK A01 T01820016  RH  033%=      5-min Rain = 0
KOD1 172100Z 36011KT 18/02 A3004 RMK A01 T01830017  RH  033%=      5-min Rain = 0
KOD1 172101Z 01011KT 18/02 A3004 RMK A01 T01830015  RH  032%=      5-min Rain = 0
KOD1 172102Z 36011KT 18/02 A3004 RMK A01 T01840016  RH  032%=      5-min Rain = 0
KOD1 172103Z 34009KT 19/02 A3004 RMK A01 T01850016  RH  032%=      5-min Rain = 0
KOD1 172104Z 35012KT 19/02 A3005 RMK A01 T01850015  RH  032%=      5-min Rain = 0
KOD1 172105Z 35009KT 18/02 A3005 RMK A01 T01840016  RH  032%=      5-min Rain = 0
KOD1 172106Z 00011KT 18/02 A3005 RMK A01 T01840016  RH  032%=      5-min Rain = 0
KOD1 172107Z 36012KT 19/02 A3005 RMK A01 T01860015  RH  032%=      5-min Rain = 0
KOD1 172108Z 35010KT 19/01 A3005 RMK A01 T01860014  RH  032%=      5-min Rain = 0
KOD1 172109Z 35010KT 19/01 A3005 RMK A01 T01860014  RH  032%=      5-min Rain = 0
KOD1 172110Z 35009KT 19/01 A3004 RMK A01 T01860014  RH  032%=      5-min Rain = 0
KOD1 172111Z 36012KT 19/02 A3004 RMK A01 T01870015  RH  032%=      5-min Rain = 0
KOD1 172112Z 36011KT 19/01 A3004 RMK A01 T01870014  RH  031%=      5-min Rain = 0
KOD1 172113Z 00014KT 19/01 A3005 RMK A01 T01850014  RH  032%=      5-min Rain = 0
KOD1 172114Z 00013KT 18/01 A3004 RMK A01 T01840014  RH  032%=      5-min Rain = 0
KOD1 172115Z 35013KT 18/01 A3004 RMK A01 T01830014  RH  032%=      5-min Rain = 0
KOD1 172116Z 36011KT 18/01 A3004 RMK A01 T01820013  RH  032%=      5-min Rain = 0
KOD1 172117Z 36014KT 18/01 A3004 RMK A01 T01810014  RH  033%=      5-min Rain = 0
KOD1 172118Z 35013KT 18/01 A3004 RMK A01 T01830014  RH  032%=      5-min Rain = 0
KOD1 172119Z 35010KT 18/01 A3004 RMK A01 T01820014  RH  032%=      5-min Rain = 0
KOD1 172120Z 35011KT 18/01 A3004 RMK A01 T01830013  RH  032%=      5-min Rain = 0
KOD1 172121Z 35011KT 18/01 A3005 RMK A01 T01820013  RH  032%=      5-min Rain = 0
KOD1 172122Z 35010G15KT 18/01 A3005 RMK A01 T01840014  RH  032%=      5-min Rain = 0
KOD1 172123Z 00009KT 18/01 A3004 RMK A01 T01840014  RH  032%=      5-min Rain = 0
KOD1 172124Z 36012KT 19/01 A3004 RMK A01 T01850013  RH  032%=      5-min Rain = 0
KOD1 172125Z 35013KT 18/01 A3004 RMK A01 T01840013  RH  032%=      5-min Rain = 0
KOD1 172126Z 34014KT 18/01 A3004 RMK A01 T01820012  RH  032%=      5-min Rain = 0
KOD1 172127Z 35012KT 18/01 A3004 RMK A01 T01810013  RH  032%=      5-min Rain = 0
KOD1 172128Z 34012KT 18/01 A3004 RMK A01 T01800012  RH  032%=      5-min Rain = 0
KOD1 172129Z 34010KT 18/01 A3004 RMK A01 T01800013  RH  033%=      5-min Rain = 0
KOD1 172130Z 36007KT 18/01 A3004 RMK A01 T01800013  RH  033%=      5-min Rain = 0
KOD1 172131Z 35010KT 18/02 A3004 RMK A01 T01830015  RH  032%=      5-min Rain = 0
KOD1 172132Z 36013KT 18/01 A3004 RMK A01 T01840011  RH  031%=      5-min Rain = 0
KOD1 172133Z 35013KT 18/01 A3004 RMK A01 T01820011  RH  032%=      5-min Rain = 0
KOD1 172134Z 35012KT 18/01 A3004 RMK A01 T01810011  RH  032%=      5-min Rain = 0
KOD1 172135Z 35011KT 18/01 A3004 RMK A01 T01810011  RH  032%=      5-min Rain = 0
KOD1 172136Z 00012KT 18/01 A3004 RMK A01 T01810010  RH  032%=      5-min Rain = 0
KOD1 172137Z 01013KT 18/01 A3004 RMK A01 T01810011  RH  032%=      5-min Rain = 0
KOD1 172138Z 01012KT 18/01 A3004 RMK A01 T01800010  RH  032%=      5-min Rain = 0
KOD1 172139Z 02011KT 18/01 A3004 RMK A01 T01800009  RH  032%=      5-min Rain = 0
KOD1 172140Z 02010KT 18/01 A3004 RMK A01 T01790009  RH  032%=      5-min Rain = 0
KOD1 172141Z 02008KT 18/01 A3004 RMK A01 T01790009  RH  032%=      5-min Rain = 0
KOD1 172142Z 02008KT 18/01 A3004 RMK A01 T01790009  RH  032%=      5-min Rain = 0
KOD1 172143Z 00010KT 18/01 A3004 RMK A01 T01790009  RH  032%=      5-min Rain = 0
KOD1 172144Z 36011KT 18/01 A3004 RMK A01 T01790009  RH  032%=      5-min Rain = 0
KOD1 172145Z 34012KT 18/01 A3004 RMK A01 T01800010  RH  032%=      5-min Rain = 0
KOD1 172146Z 34014KT 18/01 A3004 RMK A01 T01790010  RH  032%=      5-min Rain = 0
KOD1 172147Z 34013KT 18/01 A3004 RMK A01 T01790010  RH  032%=      5-min Rain = 0
KOD1 172148Z 35014KT 18/01 A3004 RMK A01 T01790011  RH  032%=      5-min Rain = 0
KOD1 172149Z 35012KT 18/01 A3004 RMK A01 T01790011  RH  032%=      5-min Rain = 0
KOD1 172150Z 35012KT 18/01 A3004 RMK A01 T01790011  RH  032%=      5-min Rain = 0
KOD1 172151Z 35013KT 18/01 A3004 RMK A01 T01790010  RH  032%=      5-min Rain = 0
KOD1 172152Z 00011KT 18/01 A3004 RMK A01 T01780011  RH  032%=      5-min Rain = 0
KOD1 172153Z 00010KT 18/01 A3004 RMK A01 T01790011  RH  032%=      5-min Rain = 0
KOD1 172154Z 01010KT 18/01 A3004 RMK A01 T01790010  RH  032%=      5-min Rain = 0
KOD1 172155Z 00007KT 18/01 A3004 RMK A01 T01780010  RH  032%=      5-min Rain = 0
KOD1 172156Z 00007KT 18/01 A3004 RMK A01 T01790011  RH  032%=      5-min Rain = 0
KOD1 172157Z 00010KT 18/01 A3004 RMK A01 T01790010  RH  032%=      5-min Rain = 0
KOD1 172158Z 00010G15KT 18/01 A3004 RMK A01 T01780010  RH  032%=      5-min Rain = 0
KOD1 172159Z 36012KT 18/01 A3005 RMK A01 T01780009  RH  032%=      5-min Rain = 0
KOD1 172200Z 35010KT 18/01 A3005 RMK A01 T01780009  RH  032%=      5-min Rain = 0
KOD1 172201Z 35011KT 18/01 A3005 RMK A01 T01780009  RH  032%=      5-min Rain = 0
KOD1 172202Z 34010KT 18/01 A3005 RMK A01 T01780008  RH  032%=      5-min Rain = 0
KOD1 172203Z 35009G14KT 18/01 A3005 RMK A01 T01780008  RH  032%=      5-min Rain = 0
KOD1 172204Z 36009KT 18/01 A3005 RMK A01 T01790008  RH  032%=      5-min Rain = 0
KOD1 172205Z 35010KT 18/01 A3005 RMK A01 T01800008  RH  032%=      5-min Rain = 0
KOD1 172206Z 35011KT 18/01 A3005 RMK A01 T01790008  RH  031%=      5-min Rain = 0
KOD1 172207Z 35011KT 18/01 A3005 RMK A01 T01780007  RH  032%=      5-min Rain = 0
KOD1 172208Z 35009KT 18/01 A3005 RMK A01 T01780007  RH  032%=      5-min Rain = 0
KOD1 172209Z 35009KT 18/01 A3004 RMK A01 T01780008  RH  032%=      5-min Rain = 0
KOD1 172210Z 35008KT 18/01 A3004 RMK A01 T01780008  RH  032%=      5-min Rain = 0
KOD1 172211Z 35009KT 18/01 A3004 RMK A01 T01780007  RH  031%=      5-min Rain = 0
KOD1 172212Z 35009KT 18/01 A3004 RMK A01 T01780007  RH  032%=      5-min Rain = 0
KOD1 172213Z 34009KT 18/01 A3004 RMK A01 T01780007  RH  032%=      5-min Rain = 0
KOD1 172214Z 35007KT 18/01 A3004 RMK A01 T01780007  RH  032%=      5-min Rain = 0
KOD1 172215Z 35007KT 18/01 A3004 RMK A01 T01780007  RH  032%=      5-min Rain = 0
KOD1 172216Z 35009KT 18/01 A3004 RMK A01 T01780007  RH  031%=      5-min Rain = 0
KOD1 172217Z 35010KT 18/01 A3004 RMK A01 T01770006  RH  031%=      5-min Rain = 0
KOD1 172218Z 35009KT 18/01 A3004 RMK A01 T01760007  RH  032%=      5-min Rain = 0
KOD1 172219Z 00010KT 18/01 A3004 RMK A01 T01760006  RH  032%=      5-min Rain = 0
KOD1 172220Z 00010KT 18/01 A3004 RMK A01 T01760007  RH  032%=      5-min Rain = 0
KOD1 172221Z 35009KT 18/01 A3004 RMK A01 T01760008  RH  032%=      5-min Rain = 0
KOD1 172222Z 36011KT 18/01 A3004 RMK A01 T01760008  RH  032%=      5-min Rain = 0
KOD1 172223Z 01010KT 18/01 A3005 RMK A01 T01760008  RH  032%=      5-min Rain = 0
KOD1 172224Z 00012KT 18/01 A3005 RMK A01 T01750007  RH  032%=      5-min Rain = 0
KOD1 172225Z 00011KT 17/01 A3005 RMK A01 T01740007  RH  032%=      5-min Rain = 0
KOD1 172226Z 00011KT 17/01 A3005 RMK A01 T01740007  RH  032%=      5-min Rain = 0
KOD1 172227Z 36009KT 17/01 A3005 RMK A01 T01740006  RH  032%=      5-min Rain = 0
KOD1 172228Z 36010KT 17/01 A3005 RMK A01 T01740007  RH  032%=      5-min Rain = 0
KOD1 172229Z 01011KT 17/01 A3005 RMK A01 T01730007  RH  032%=      5-min Rain = 0
KOD1 172230Z 01008KT 17/01 A3004 RMK A01 T01730007  RH  033%=      5-min Rain = 0
KOD1 172231Z 01009KT 17/01 A3004 RMK A01 T01730007  RH  033%=      5-min Rain = 0
KOD1 172232Z 36011KT 17/01 A3004 RMK A01 T01730007  RH  033%=      5-min Rain = 0
KOD1 172233Z 36012KT 17/01 A3004 RMK A01 T01720008  RH  033%=      5-min Rain = 0
KOD1 172234Z 00010KT 17/01 A3004 RMK A01 T01720007  RH  033%=      5-min Rain = 0
KOD1 172235Z 00009KT 17/01 A3004 RMK A01 T01720008  RH  033%=      5-min Rain = 0
KOD1 172236Z 36010KT 17/01 A3004 RMK A01 T01720007  RH  033%=      5-min Rain = 0
KOD1 172237Z 00009KT 17/01 A3004 RMK A01 T01710007  RH  033%=      5-min Rain = 0
KOD1 172238Z 01009KT 17/01 A3004 RMK A01 T01710007  RH  033%=      5-min Rain = 0
KOD1 172239Z 01009KT 17/01 A3004 RMK A01 T01710008  RH  033%=      5-min Rain = 0
KOD1 172240Z 01008KT 17/01 A3004 RMK A01 T01710008  RH  033%=      5-min Rain = 0
KOD1 172241Z 00009KT 17/01 A3004 RMK A01 T01700008  RH  033%=      5-min Rain = 0
KOD1 172242Z 00009KT 17/01 A3004 RMK A01 T01700008  RH  033%=      5-min Rain = 0
KOD1 172243Z 00009KT 17/01 A3004 RMK A01 T01700008  RH  033%=      5-min Rain = 0
KOD1 172244Z 00009KT 17/01 A3004 RMK A01 T01700008  RH  033%=      5-min Rain = 0
KOD1 172245Z 00007KT 17/01 A3004 RMK A01 T01700008  RH  033%=      5-min Rain = 0
KOD1 172246Z 00007KT 17/01 A3004 RMK A01 T01690008  RH  034%=      5-min Rain = 0
KOD1 172247Z 01007KT 17/01 A3004 RMK A01 T01690009  RH  034%=      5-min Rain = 0
KOD1 172248Z 00006KT 17/01 A3004 RMK A01 T01690009  RH  034%=      5-min Rain = 0
KOD1 172249Z 00007KT 17/01 A3004 RMK A01 T01680010  RH  034%=      5-min Rain = 0
KOD1 172250Z 00008KT 17/01 A3004 RMK A01 T01680010  RH  034%=      5-min Rain = 0
KOD1 172251Z 01010KT 17/01 A3004 RMK A01 T01670009  RH  034%=      5-min Rain = 0
KOD1 172252Z 01009KT 17/01 A3004 RMK A01 T01670008  RH  034%=      5-min Rain = 0
KOD1 172253Z 00008KT 17/01 A3004 RMK A01 T01670010  RH  035%=      5-min Rain = 0
KOD1 172254Z 00008KT 17/01 A3004 RMK A01 T01660010  RH  035%=      5-min Rain = 0
KOD1 172255Z 01007KT 17/01 A3004 RMK A01 T01650010  RH  035%=      5-min Rain = 0
KOD1 172256Z 01008KT 16/01 A3004 RMK A01 T01640010  RH  035%=      5-min Rain = 0
KOD1 172257Z 01007KT 16/01 A3004 RMK A01 T01640009  RH  035%=      5-min Rain = 0
KOD1 172258Z 01007KT 16/01 A3004 RMK A01 T01640009  RH  035%=      5-min Rain = 0
KOD1 172259Z 01006KT 16/01 A3004 RMK A01 T01630010  RH  035%=      5-min Rain = 0
KOD1 172300Z 01006KT 16/01 A3004 RMK A01 T01620009  RH  035%=      5-min Rain = 0
KOD1 172301Z 01006KT 16/01 A3004 RMK A01 T01620009  RH  035%=      5-min Rain = 0
KOD1 172302Z 01006KT 16/01 A3004 RMK A01 T01610009  RH  036%=      5-min Rain = 0
KOD1 172303Z 01007KT 16/01 A3004 RMK A01 T01610009  RH  036%=      5-min Rain = 0
KOD1 172304Z 01006KT 16/01 A3005 RMK A01 T01600009  RH  036%=      5-min Rain = 0
KOD1 172305Z 01006KT 16/01 A3005 RMK A01 T01600009  RH  036%=      5-min Rain = 0
KOD1 172306Z 01006KT 16/01 A3005 RMK A01 T01590009  RH  036%=      5-min Rain = 0
KOD1 172307Z 01006KT 16/01 A3005 RMK A01 T01580009  RH  036%=      5-min Rain = 0
KOD1 172308Z 01006KT 16/01 A3005 RMK A01 T01580009  RH  036%=      5-min Rain = 0
KOD1 172309Z 01006KT 16/01 A3005 RMK A01 T01570009  RH  037%=      5-min Rain = 0
KOD1 172310Z 01007KT 16/01 A3005 RMK A01 T01560009  RH  037%=      5-min Rain = 0
KOD1 172311Z 01005KT 16/01 A3005 RMK A01 T01560008  RH  037%=      5-min Rain = 0
KOD1 172312Z 01005KT 16/01 A3005 RMK A01 T01550008  RH  037%=      5-min Rain = 0
KOD1 172313Z 01005KT 15/01 A3005 RMK A01 T01540009  RH  037%=      5-min Rain = 0
KOD1 172314Z 01005KT 15/01 A3005 RMK A01 T01530009  RH  038%=      5-min Rain = 0
KOD1 172315Z 01006KT 15/01 A3005 RMK A01 T01520008  RH  038%=      5-min Rain = 0
KOD1 172316Z 01005KT 15/01 A3005 RMK A01 T01510008  RH  038%=      5-min Rain = 0
KOD1 172317Z 01005KT 15/01 A3005 RMK A01 T01500008  RH  038%=      5-min Rain = 0
KOD1 172318Z 01005KT 15/01 A3005 RMK A01 T01500008  RH  038%=      5-min Rain = 0
KOD1 172319Z 01005KT 15/01 A3005 RMK A01 T01480007  RH  038%=      5-min Rain = 0
KOD1 172320Z 01005KT 15/01 A3005 RMK A01 T01480007  RH  038%=      5-min Rain = 0
KOD1 172321Z 01005KT 15/01 A3005 RMK A01 T01470007  RH  038%=      5-min Rain = 0
KOD1 172322Z 01005KT 15/01 A3005 RMK A01 T01460007  RH  039%=      5-min Rain = 0
KOD1 172323Z 01005KT 15/01 A3005 RMK A01 T01460007  RH  039%=      5-min Rain = 0
KOD1 172324Z 01004KT 15/01 A3005 RMK A01 T01450007  RH  039%=      5-min Rain = 0
KOD1 172325Z 01005KT 14/01 A3006 RMK A01 T01440007  RH  039%=      5-min Rain = 0
KOD1 172326Z 01005KT 14/01 A3006 RMK A01 T01440007  RH  039%=      5-min Rain = 0
KOD1 172327Z 01005KT 14/01 A3006 RMK A01 T01430007  RH  039%=      5-min Rain = 0
KOD1 172328Z 01005KT 14/01 A3006 RMK A01 T01420006  RH  039%=      5-min Rain = 0
KOD1 172329Z 01005KT 14/01 A3006 RMK A01 T01410006  RH  040%=      5-min Rain = 0
KOD1 172330Z 01005KT 14/01 A3006 RMK A01 T01390006  RH  040%=      5-min Rain = 0
KOD1 172331Z 01005KT 14/01 A3006 RMK A01 T01380006  RH  040%=      5-min Rain = 0
KOD1 172332Z 01005KT 14/01 A3006 RMK A01 T01370006  RH  041%=      5-min Rain = 0
KOD1 172333Z 01005KT 14/01 A3006 RMK A01 T01350005  RH  041%=      5-min Rain = 0
KOD1 172334Z 01005KT 13/01 A3006 RMK A01 T01330005  RH  041%=      5-min Rain = 0
KOD1 172335Z 01005KT 13/01 A3006 RMK A01 T01320005  RH  042%=      5-min Rain = 0
KOD1 172336Z 01005KT 13/01 A3006 RMK A01 T01310006  RH  042%=      5-min Rain = 0
KOD1 172337Z 02005KT 13/01 A3006 RMK A01 T01300005  RH  042%=      5-min Rain = 0
KOD1 172338Z 02005KT 13/01 A3006 RMK A01 T01290005  RH  043%=      5-min Rain = 0
KOD1 172339Z 02005KT 13/00 A3006 RMK A01 T01270004  RH  043%=      5-min Rain = 0
KOD1 172340Z 02005KT 13/00 A3006 RMK A01 T01250004  RH  043%=      5-min Rain = 0
KOD1 172341Z 02005KT 12/00 A3006 RMK A01 T01240004  RH  044%=      5-min Rain = 0
KOD1 172342Z 02005KT 12/00 A3006 RMK A01 T01220004  RH  045%=      5-min Rain = 0
KOD1 172343Z 02005KT 12/01 A3006 RMK A01 T01200005  RH  045%=      5-min Rain = 0
KOD1 172344Z 02005KT 12/01 A3006 RMK A01 T01180005  RH  046%=      5-min Rain = 0
KOD1 172345Z 02006KT 12/01 A3006 RMK A01 T01170005  RH  046%=      5-min Rain = 0
KOD1 172346Z 02006KT 12/01 A3006 RMK A01 T01160005  RH  046%=      5-min Rain = 0
KOD1 172347Z 02006KT 12/00 A3006 RMK A01 T01150004  RH  046%=      5-min Rain = 0
KOD1 172348Z 02006KT 12/00 A3006 RMK A01 T01150003  RH  046%=      5-min Rain = 0
KOD1 172349Z 02006KT 11/00 A3006 RMK A01 T01130003  RH  047%=      5-min Rain = 0
KOD1 172350Z 02005KT 11/00 A3006 RMK A01 T01130003  RH  047%=      5-min Rain = 0
KOD1 172351Z 02005KT 11/00 A3006 RMK A01 T01120003  RH  047%=      5-min Rain = 0
KOD1 172352Z 02005KT 11/00 A3006 RMK A01 T01100003  RH  048%=      5-min Rain = 0
KOD1 172353Z 02005KT 11/00 A3006 RMK A01 T01090003  RH  048%=      5-min Rain = 0
KOD1 172354Z 02006KT 11/00 A3006 RMK A01 T01080003  RH  048%=      5-min Rain = 0
KOD1 172355Z 02006KT 11/00 A3006 RMK A01 T01090003  RH  048%=      5-min Rain = 0
KOD1 172356Z 02006KT 11/00 A3006 RMK A01 T01080003  RH  048%=      5-min Rain = 0
KOD1 172357Z 02006KT 11/00 A3006 RMK A01 T01080004  RH  049%=      5-min Rain = 0
KOD1 172358Z 02005KT 11/00 A3006 RMK A01 T01070003  RH  049%=      5-min Rain = 0
KOD1 172359Z 02005KT 11/00 A3006 RMK A01 T01060003  RH  049%=      5-min Rain = 0
KOD1 180000Z 02005KT 11/00 A3006 RMK A01 T01050003  RH  049%=      5-min Rain = 0
KOD1 180001Z 02005KT 11/00 A3006 RMK A01 T01050004  RH  049%=      5-min Rain = 0
KOD1 180002Z 02005KT 11/00 A3006 RMK A01 T01050003  RH  049%=      5-min Rain = 0
KOD1 180003Z 02005KT 11/00 A3007 RMK A01 T01050003  RH  049%=      5-min Rain = 0
KOD1 180004Z 02004KT 10/00 A3007 RMK A01 T01040003  RH  050%=      5-min Rain = 0
KOD1 180005Z 02004KT 10/00 A3007 RMK A01 T01040004  RH  050%=      5-min Rain = 0
KOD1 180006Z 02004KT 10/00 A3007 RMK A01 T01040004  RH  050%=      5-min Rain = 0
KOD1 180007Z 02004KT 10/00 A3007 RMK A01 T01040004  RH  050%=      5-min Rain = 0
KOD1 180008Z 03004KT 11/01 A3007 RMK A01 T01050005  RH  050%=      5-min Rain = 0
KOD1 180009Z 03004KT 11/01 A3007 RMK A01 T01060005  RH  050%=      5-min Rain = 0
KOD1 180010Z 03003KT 11/00 A3007 RMK A01 T01060004  RH  049%=      5-min Rain = 0
KOD1 180011Z 03004KT 11/01 A3007 RMK A01 T01060005  RH  049%=      5-min Rain = 0
KOD1 180012Z 03003KT 11/00 A3007 RMK A01 T01060004  RH  049%=      5-min Rain = 0
KOD1 180013Z 03003KT 11/00 A3007 RMK A01 T01070004  RH  049%=      5-min Rain = 0
KOD1 180014Z 03003KT 11/01 A3007 RMK A01 T01070005  RH  049%=      5-min Rain = 0
KOD1 180015Z 03004KT 11/01 A3007 RMK A01 T01080006  RH  049%=      5-min Rain = 0
KOD1 180016Z 03004KT 11/01 A3007 RMK A01 T01090006  RH  049%=      5-min Rain = 0
KOD1 180017Z 03004KT 11/01 A3007 RMK A01 T01100006  RH  048%=      5-min Rain = 0
KOD1 180018Z 03004KT 11/01 A3007 RMK A01 T01110005  RH  048%=      5-min Rain = 0
KOD1 180019Z 03004KT 11/01 A3007 RMK A01 T01120006  RH  048%=      5-min Rain = 0
KOD1 180020Z 03004KT 11/01 A3007 RMK A01 T01140006  RH  048%=      5-min Rain = 0
KOD1 180021Z 03004KT 12/01 A3007 RMK A01 T01150006  RH  047%=      5-min Rain = 0
KOD1 180022Z 04004KT 12/01 A3007 RMK A01 T01160006  RH  047%=      5-min Rain = 0
KOD1 180023Z 04004KT 12/01 A3007 RMK A01 T01180006  RH  046%=      5-min Rain = 0
KOD1 180024Z 03004KT 12/01 A3007 RMK A01 T01190006  RH  046%=      5-min Rain = 0
KOD1 180025Z 03004KT 12/01 A3007 RMK A01 T01190006  RH  046%=      5-min Rain = 0
KOD1 180026Z 03004KT 12/01 A3007 RMK A01 T01200006  RH  046%=      5-min Rain = 0
KOD1 180027Z 03004KT 12/01 A3007 RMK A01 T01200006  RH  046%=      5-min Rain = 0
KOD1 180028Z 03004KT 12/01 A3007 RMK A01 T01200006  RH  046%=      5-min Rain = 0
KOD1 180029Z 04004KT 12/01 A3007 RMK A01 T01200006  RH  046%=      5-min Rain = 0
KOD1 180030Z 04004KT 12/01 A3007 RMK A01 T01200006  RH  045%=      5-min Rain = 0
KOD1 180031Z 04004KT 12/01 A3007 RMK A01 T01200006  RH  045%=      5-min Rain = 0
KOD1 180032Z 04003KT 12/01 A3007 RMK A01 T01200006  RH  045%=      5-min Rain = 0
KOD1 180033Z 03003KT 12/01 A3007 RMK A01 T01200006  RH  045%=      5-min Rain = 0
KOD1 180034Z 03003KT 12/01 A3007 RMK A01 T01200005  RH  045%=      5-min Rain = 0
KOD1 180035Z 03003KT 12/01 A3007 RMK A01 T01200005  RH  045%=      5-min Rain = 0
KOD1 180036Z 04003KT 12/01 A3007 RMK A01 T01200005  RH  045%=      5-min Rain = 0
KOD1 180037Z 03004KT 12/01 A3007 RMK A01 T01190005  RH  045%=      5-min Rain = 0
KOD1 180038Z 03004KT 12/01 A3007 RMK A01 T01190005  RH  045%=      5-min Rain = 0
KOD1 180039Z 03004KT 12/01 A3007 RMK A01 T01200005  RH  045%=      5-min Rain = 0
KOD1 180040Z 03004KT 12/01 A3007 RMK A01 T01200005  RH  045%=      5-min Rain = 0
KOD1 180041Z 03004KT 12/01 A3007 RMK A01 T01200005  RH  045%=      5-min Rain = 0
KOD1 180042Z 03004KT 12/01 A3007 RMK A01 T01200005  RH  045%=      5-min Rain = 0
KOD1 180043Z 03004KT 12/01 A3007 RMK A01 T01200005  RH  045%=      5-min Rain = 0
KOD1 180044Z 03004KT 12/01 A3007 RMK A01 T01200005  RH  045%=      5-min Rain = 0
KOD1 180045Z 03004KT 12/00 A3007 RMK A01 T01200004  RH  045%=      5-min Rain = 0
KOD1 180046Z 03004KT 12/01 A3007 RMK A01 T01190005  RH  045%=      5-min Rain = 0
KOD1 180047Z 03004KT 12/01 A3007 RMK A01 T01190005  RH  045%=      5-min Rain = 0
KOD1 180048Z 03003KT 12/00 A3007 RMK A01 T01180004  RH  046%=      5-min Rain = 0
KOD1 180049Z 03003KT 12/00 A3007 RMK A01 T01180004  RH  046%=      5-min Rain = 0
KOD1 180050Z 03003KT 12/00 A3007 RMK A01 T01170004  RH  046%=      5-min Rain = 0
KOD1 180051Z 03003KT 12/00 A3007 RMK A01 T01160003  RH  046%=      5-min Rain = 0
KOD1 180052Z 04002KT 12/00 A3007 RMK A01 T01150003  RH  046%=      5-min Rain = 0
KOD1 180053Z 04002KT 11/00 A3007 RMK A01 T01130001  RH  046%=      5-min Rain = 0
KOD1 180054Z 04002KT 11/00 A3007 RMK A01 T01110001  RH  047%=      5-min Rain = 0
KOD1 180055Z 04002KT 11/00 A3007 RMK A01 T01070003  RH  048%=      5-min Rain = 0
KOD1 180056Z 04001KT 10/00 A3007 RMK A01 T01040004  RH  050%=      5-min Rain = 0
KOD1 180057Z 05001KT 10/01 A3007 RMK A01 T01010005  RH  051%=      5-min Rain = 0
KOD1 180058Z 05001KT 10/01 A3007 RMK A01 T00990005  RH  052%=      5-min Rain = 0
KOD1 180059Z 05001KT 10/01 A3007 RMK A01 T00970005  RH  053%=      5-min Rain = 0
KOD1 180100Z 05001KT 10/01 A3007 RMK A01 T00950005  RH  053%=      5-min Rain = 0
KOD1 180101Z 04002KT 09/01 A3007 RMK A01 T00930005  RH  054%=      5-min Rain = 0
KOD1 180102Z 03002KT 09/01 A3007 RMK A01 T00920006  RH  055%=      5-min Rain = 0
KOD1 180103Z 03002KT 09/01 A3007 RMK A01 T00910006  RH  055%=      5-min Rain = 0
KOD1 180104Z 03002KT 09/01 A3007 RMK A01 T00900006  RH  056%=      5-min Rain = 0
KOD1 180105Z 03002KT 09/01 A3007 RMK A01 T00890005  RH  056%=      5-min Rain = 0
KOD1 180106Z 03002KT 09/01 A3007 RMK A01 T00880005  RH  056%=      5-min Rain = 0
KOD1 180107Z 03002KT 09/01 A3007 RMK A01 T00880005  RH  056%=      5-min Rain = 0
KOD1 180108Z 03002KT 09/01 A3007 RMK A01 T00880005  RH  056%=      5-min Rain = 0
KOD1 180109Z 03002KT 09/00 A3007 RMK A01 T00880004  RH  056%=      5-min Rain = 0
KOD1 180110Z 03002KT 09/00 A3007 RMK A01 T00880004  RH  056%=      5-min Rain = 0
KOD1 180111Z 03002KT 09/00 A3007 RMK A01 T00880004  RH  056%=      5-min Rain = 0
KOD1 180112Z 03002KT 09/00 A3007 RMK A01 T00880004  RH  056%=      5-min Rain = 0
KOD1 180113Z 03002KT 09/00 A3007 RMK A01 T00880004  RH  056%=      5-min Rain = 0
KOD1 180114Z 03002KT 09/00 A3007 RMK A01 T00880004  RH  055%=      5-min Rain = 0
KOD1 180115Z 04002KT 09/00 A3007 RMK A01 T00880004  RH  055%=      5-min Rain = 0
KOD1 180116Z 04002KT 09/00 A3007 RMK A01 T00890004  RH  055%=      5-min Rain = 0
KOD1 180117Z 04002KT 09/00 A3007 RMK A01 T00900004  RH  055%=      5-min Rain = 0
KOD1 180118Z 04002KT 09/00 A3007 RMK A01 T00900003  RH  055%=      5-min Rain = 0
KOD1 180119Z 05002KT 09/00 A3007 RMK A01 T00900004  RH  055%=      5-min Rain = 0
KOD1 180120Z 05002KT 09/00 A3007 RMK A01 T00900004  RH  055%=      5-min Rain = 0
KOD1 180121Z 06001KT 09/00 A3007 RMK A01 T00910004  RH  055%=      5-min Rain = 0
KOD1 180122Z 06001KT 09/00 A3007 RMK A01 T00920004  RH  054%=      5-min Rain = 0
KOD1 180123Z 06001KT 09/00 A3007 RMK A01 T00920004  RH  054%=      5-min Rain = 0
KOD1 180124Z 06001KT 09/00 A3007 RMK A01 T00920004  RH  054%=      5-min Rain = 0
KOD1 180125Z 06001KT 09/00 A3007 RMK A01 T00930004  RH  054%=      5-min Rain = 0
KOD1 180126Z 06001KT 09/00 A3007 RMK A01 T00930004  RH  054%=      5-min Rain = 0
KOD1 180127Z 06001KT 09/00 A3007 RMK A01 T00940004  RH  053%=      5-min Rain = 0
KOD1 180128Z 06001KT 09/00 A3007 RMK A01 T00940004  RH  053%=      5-min Rain = 0
KOD1 180129Z 06001KT 09/00 A3007 RMK A01 T00940004  RH  053%=      5-min Rain = 0
KOD1 180130Z 06001KT 09/00 A3007 RMK A01 T00940004  RH  053%=      5-min Rain = 0
KOD1 180131Z 06001KT 09/00 A3007 RMK A01 T00930003  RH  053%=      5-min Rain = 0
KOD1 180132Z 06001KT 09/00 A3007 RMK A01 T00920003  RH  054%=      5-min Rain = 0
KOD1 180133Z 06001KT 09/00 A3007 RMK A01 T00920003  RH  054%=      5-min Rain = 0
KOD1 180134Z 06001KT 09/00 A3007 RMK A01 T00920003  RH  054%=      5-min Rain = 0
KOD1 180135Z 06001KT 09/00 A3007 RMK A01 T00920003  RH  054%=      5-min Rain = 0
KOD1 180136Z 07001KT 09/00 A3007 RMK A01 T00920003  RH  054%=      5-min Rain = 0
KOD1 180137Z 07001KT 09/00 A3007 RMK A01 T00920003  RH  054%=      5-min Rain = 0
KOD1 180138Z 07000KT 09/00 A3007 RMK A01 T00930003  RH  053%=      5-min Rain = 0
KOD1 180139Z 07000KT 09/00 A3007 RMK A01 T00930003  RH  053%=      5-min Rain = 0
KOD1 180140Z 07000KT 09/00 A3007 RMK A01 T00930003  RH  053%=      5-min Rain = 0
KOD1 180141Z 07000KT 09/00 A3007 RMK A01 T00930002  RH  053%=      5-min Rain = 0
KOD1 180142Z 07001KT 09/00 A3007 RMK A01 T00910002  RH  054%=      5-min Rain = 0
KOD1 180143Z 07001KT 09/00 A3007 RMK A01 T00900003  RH  055%=      5-min Rain = 0
KOD1 180144Z 07001KT 09/00 A3007 RMK A01 T00890003  RH  055%=      5-min Rain = 0
KOD1 180145Z 07001KT 09/00 A3007 RMK A01 T00870002  RH  055%=      5-min Rain = 0
KOD1 180146Z 07001KT 09/00 A3007 RMK A01 T00860001  RH  055%=      5-min Rain = 0
KOD1 180147Z 07001KT 08/00 A3007 RMK A01 T00840001  RH  056%=      5-min Rain = 0
KOD1 180148Z 08001KT 08/00 A3007 RMK A01 T00840002  RH  056%=      5-min Rain = 0
KOD1 180149Z 08001KT 09/00 A3007 RMK A01 T00860002  RH  056%=      5-min Rain = 0
KOD1 180150Z 08001KT 09/00 A3007 RMK A01 T00880003  RH  055%=      5-min Rain = 0
KOD1 180151Z 08001KT 09/00 A3007 RMK A01 T00890002  RH  055%=      5-min Rain = 0
KOD1 180152Z 09001KT 09/00 A3007 RMK A01 T00890002  RH  054%=      5-min Rain = 0
KOD1 180153Z 09001KT 09/00 A3007 RMK A01 T00880001  RH  055%=      5-min Rain = 0
KOD1 180154Z 09000KT 09/00 A3007 RMK A01 T00860001  RH  055%=      5-min Rain = 0
KOD1 180155Z 09000KT 08/00 A3007 RMK A01 T00830000  RH  056%=      5-min Rain = 0
KOD1 180156Z 00000KT 08/00 A3007 RMK A01 T00810000  RH  057%=      5-min Rain = 0
KOD1 180157Z 00000KT 08/00 A3007 RMK A01 T00790001  RH  058%=      5-min Rain = 0
KOD1 180158Z 00000KT 08/00 A3008 RMK A01 T00770001  RH  058%=      5-min Rain = 0
KOD1 180159Z 00000KT 08/00 A3008 RMK A01 T00760001  RH  059%=      5-min Rain = 0
KOD1 180200Z 00000KT 08/00 A3008 RMK A01 T00750001  RH  059%=      5-min Rain = 0
KOD1 180201Z 00000KT 07/00 A3008 RMK A01 T00740001  RH  060%=      5-min Rain = 0
KOD1 180202Z 00000KT 07/00 A3008 RMK A01 T00740001  RH  060%=      5-min Rain = 0
KOD1 180203Z 00000KT 07/00 A3008 RMK A01 T00730002  RH  061%=      5-min Rain = 0
KOD1 180204Z 18000KT 07/00 A3008 RMK A01 T00730003  RH  061%=      5-min Rain = 0
KOD1 180205Z 18001KT 07/00 A3008 RMK A01 T00740004  RH  061%=      5-min Rain = 0
KOD1 180206Z 18001KT 07/00 A3008 RMK A01 T00740004  RH  061%=      5-min Rain = 0
KOD1 180207Z 18001KT 07/00 A3008 RMK A01 T00740004  RH  061%=      5-min Rain = 0
KOD1 180208Z 18001KT 07/00 A3008 RMK A01 T00730004  RH  062%=      5-min Rain = 0
KOD1 180209Z 18001KT 07/00 A3008 RMK A01 T00730004  RH  062%=      5-min Rain = 0
KOD1 180210Z 18000KT 07/01 A3008 RMK A01 T00730005  RH  062%=      5-min Rain = 0
KOD1 180211Z 00000KT 07/01 A3008 RMK A01 T00720005  RH  062%=      5-min Rain = 0
KOD1 180212Z 00000KT 07/01 A3008 RMK A01 T00720006  RH  063%=      5-min Rain = 0
KOD1 180213Z 00000KT 07/01 A3008 RMK A01 T00720006  RH  063%=      5-min Rain = 0
KOD1 180214Z 00000KT 07/01 A3008 RMK A01 T00710006  RH  063%=      5-min Rain = 0
KOD1 180215Z 00000KT 07/01 A3008 RMK A01 T00710006  RH  063%=      5-min Rain = 0
KOD1 180216Z 00000KT 07/01 A3008 RMK A01 T00710006  RH  063%=      5-min Rain = 0
KOD1 180217Z 00000KT 07/01 A3008 RMK A01 T00710007  RH  064%=      5-min Rain = 0
KOD1 180218Z 00000KT 07/01 A3008 RMK A01 T00710007  RH  064%=      5-min Rain = 0
KOD1 180219Z 00000KT 07/01 A3008 RMK A01 T00720007  RH  063%=      5-min Rain = 0
KOD1 180220Z 00000KT 07/01 A3008 RMK A01 T00730008  RH  063%=      5-min Rain = 0
KOD1 180221Z 18001KT 07/01 A3008 RMK A01 T00730007  RH  063%=      5-min Rain = 0
KOD1 180222Z 19001KT 07/01 A3008 RMK A01 T00730007  RH  063%=      5-min Rain = 0
KOD1 180223Z 21001KT 07/01 A3008 RMK A01 T00730007  RH  063%=      5-min Rain = 0
KOD1 180224Z 23002KT 07/01 A3008 RMK A01 T00730006  RH  063%=      5-min Rain = 0
KOD1 180225Z 23002KT 07/01 A3008 RMK A01 T00720005  RH  062%=      5-min Rain = 0
KOD1 180226Z 23002KT 07/01 A3008 RMK A01 T00710005  RH  063%=      5-min Rain = 0
KOD1 180227Z 22002KT 07/01 A3008 RMK A01 T00690005  RH  064%=      5-min Rain = 0
KOD1 180228Z 22002KT 07/01 A3008 RMK A01 T00680005  RH  064%=      5-min Rain = 0
KOD1 180229Z 22002KT 07/01 A3008 RMK A01 T00670006  RH  065%=      5-min Rain = 0
KOD1 180230Z 22002KT 07/01 A3008 RMK A01 T00670006  RH  065%=      5-min Rain = 0
KOD1 180231Z 22002KT 07/01 A3008 RMK A01 T00660006  RH  066%=      5-min Rain = 0
KOD1 180232Z 22002KT 07/01 A3008 RMK A01 T00650006  RH  066%=      5-min Rain = 0
KOD1 180233Z 22003KT 07/01 A3008 RMK A01 T00650005  RH  066%=      5-min Rain = 0
KOD1 180234Z 22003KT 06/00 A3008 RMK A01 T00630004  RH  065%=      5-min Rain = 0
KOD1 180235Z 22003KT 06/00 A3008 RMK A01 T00630002  RH  065%=      5-min Rain = 0
KOD1 180236Z 22003KT 06/00 A3009 RMK A01 T00620002  RH  065%=      5-min Rain = 0
KOD1 180237Z 23003KT 06/00 A3009 RMK A01 T00620002  RH  066%=      5-min Rain = 0
KOD1 180238Z 23002KT 06/00 A3009 RMK A01 T00610002  RH  066%=      5-min Rain = 0
KOD1 180239Z 23002KT 06/00 A3009 RMK A01 T00610002  RH  066%=      5-min Rain = 0
KOD1 180240Z 23002KT 06/00 A3009 RMK A01 T00610002  RH  066%=      5-min Rain = 0
KOD1 180241Z 23002KT 06/00 A3009 RMK A01 T00610002  RH  066%=      5-min Rain = 0
KOD1 180242Z 23002KT 06/00 A3009 RMK A01 T00610002  RH  066%=      5-min Rain = 0
KOD1 180243Z 23002KT 06/00 A3009 RMK A01 T00620002  RH  065%=      5-min Rain = 0
KOD1 180244Z 23002KT 06/00 A3009 RMK A01 T00620001  RH  065%=      5-min Rain = 0
KOD1 180245Z 23002KT 06/00 A3009 RMK A01 T00630002  RH  065%=      5-min Rain = 0
KOD1 180246Z 23002KT 06/00 A3009 RMK A01 T00630002  RH  065%=      5-min Rain = 0
KOD1 180247Z 24001KT 06/00 A3008 RMK A01 T00640002  RH  065%=      5-min Rain = 0
KOD1 180248Z 24001KT 06/00 A3008 RMK A01 T00640002  RH  064%=      5-min Rain = 0
KOD1 180249Z 24001KT 06/00 A3008 RMK A01 T00640002  RH  064%=      5-min Rain = 0
KOD1 180250Z 24001KT 06/00 A3009 RMK A01 T00640002  RH  064%=      5-min Rain = 0
KOD1 180251Z 24001KT 06/00 A3009 RMK A01 T00640002  RH  064%=      5-min Rain = 0
KOD1 180252Z 24002KT 06/00 A3008 RMK A01 T00640002  RH  064%=      5-min Rain = 0
KOD1 180253Z 24002KT 06/00 A3008 RMK A01 T00640002  RH  064%=      5-min Rain = 0
KOD1 180254Z 24003KT 06/00 A3009 RMK A01 T00640002  RH  064%=      5-min Rain = 0
KOD1 180255Z 24003KT 06/00 A3009 RMK A01 T00640002  RH  064%=      5-min Rain = 0
KOD1 180256Z 24003KT 06/00 A3009 RMK A01 T00640002  RH  064%=      5-min Rain = 0
KOD1 180257Z 23003KT 06/00 A3009 RMK A01 T00640001  RH  064%=      5-min Rain = 0
KOD1 180258Z 24004KT 06/00 A3009 RMK A01 T00620000  RH  065%=      5-min Rain = 0
KOD1 180259Z 23004KT 06/00 A3009 RMK A01 T006100-0  RH  065%=      5-min Rain = 0
KOD1 180300Z 23004KT 06/M00 A3009 RMK A01 T00591001  RH  066%=      5-min Rain = 0
KOD1 180301Z 23003KT 06/M00 A3009 RMK A01 T00571001  RH  066%=      5-min Rain = 0
KOD1 180302Z 23003KT 06/M00 A3008 RMK A01 T00561001  RH  067%=      5-min Rain = 0
KOD1 180303Z 22003KT 06/00 A3008 RMK A01 T005500-0  RH  068%=      5-min Rain = 0
KOD1 180304Z 22003KT 06/00 A3008 RMK A01 T00550000  RH  068%=      5-min Rain = 0
KOD1 180305Z 22003KT 06/00 A3008 RMK A01 T00550000  RH  068%=      5-min Rain = 0
KOD1 180306Z 22003KT 06/00 A3008 RMK A01 T00550001  RH  068%=      5-min Rain = 0
KOD1 180307Z 23003KT 06/00 A3008 RMK A01 T00570001  RH  067%=      5-min Rain = 0
KOD1 180308Z 23003KT 06/00 A3008 RMK A01 T00570000  RH  067%=      5-min Rain = 0
KOD1 180309Z 22003KT 06/00 A3008 RMK A01 T00570000  RH  067%=      5-min Rain = 0
KOD1 180310Z 22003KT 06/00 A3008 RMK A01 T00580001  RH  067%=      5-min Rain = 0
KOD1 180311Z 22003KT 06/00 A3008 RMK A01 T00580001  RH  067%=      5-min Rain = 0
KOD1 180312Z 21004KT 06/00 A3008 RMK A01 T00580002  RH  067%=      5-min Rain = 0
KOD1 180313Z 21004KT 06/00 A3008 RMK A01 T00590002  RH  067%=      5-min Rain = 0
KOD1 180314Z 21005KT 06/00 A3008 RMK A01 T00600002  RH  067%=      5-min Rain = 0
KOD1 180315Z 21005KT 06/00 A3008 RMK A01 T00600002  RH  067%=      5-min Rain = 0
KOD1 180316Z 21004KT 06/00 A3008 RMK A01 T00600003  RH  067%=      5-min Rain = 0
KOD1 180317Z 21005KT 06/00 A3008 RMK A01 T00600003  RH  067%=      5-min Rain = 0
KOD1 180318Z 21005KT 06/00 A3008 RMK A01 T00600004  RH  067%=      5-min Rain = 0
KOD1 180319Z 21005KT 06/00 A3008 RMK A01 T00600004  RH  067%=      5-min Rain = 0
KOD1 180320Z 21005KT 06/00 A3008 RMK A01 T00610004  RH  067%=      5-min Rain = 0
KOD1 180321Z 21005KT 06/00 A3008 RMK A01 T00610004  RH  067%=      5-min Rain = 0
KOD1 180322Z 21005KT 06/00 A3008 RMK A01 T00620004  RH  067%=      5-min Rain = 0
KOD1 180323Z 21004KT 06/00 A3008 RMK A01 T00620004  RH  066%=      5-min Rain = 0
KOD1 180324Z 21004KT 06/00 A3008 RMK A01 T00620004  RH  066%=      5-min Rain = 0
KOD1 180325Z 21004KT 06/00 A3008 RMK A01 T00620004  RH  066%=      5-min Rain = 0
KOD1 180326Z 21004KT 06/00 A3008 RMK A01 T00620004  RH  066%=      5-min Rain = 0
KOD1 180327Z 21004KT 06/00 A3008 RMK A01 T00620003  RH  066%=      5-min Rain = 0
KOD1 180328Z 21004KT 06/00 A3008 RMK A01 T00620004  RH  066%=      5-min Rain = 0
KOD1 180329Z 21004KT 06/00 A3008 RMK A01 T00620004  RH  066%=      5-min Rain = 0
KOD1 180330Z 22005KT 06/00 A3008 RMK A01 T00630004  RH  066%=      5-min Rain = 0
KOD1 180331Z 21006KT 07/00 A3008 RMK A01 T00650004  RH  065%=      5-min Rain = 0
KOD1 180332Z 22006KT 07/00 A3008 RMK A01 T00650003  RH  064%=      5-min Rain = 0
KOD1 180333Z 22006KT 07/00 A3008 RMK A01 T00650003  RH  065%=      5-min Rain = 0
KOD1 180334Z 21005KT 06/00 A3008 RMK A01 T00640003  RH  065%=      5-min Rain = 0
KOD1 180335Z 21005KT 06/00 A3008 RMK A01 T00630002  RH  065%=      5-min Rain = 0
KOD1 180336Z 21005KT 06/00 A3008 RMK A01 T00610002  RH  066%=      5-min Rain = 0
KOD1 180337Z 22005KT 06/00 A3008 RMK A01 T00590001  RH  066%=      5-min Rain = 0
KOD1 180338Z 22005KT 06/00 A3008 RMK A01 T00590001  RH  067%=      5-min Rain = 0
KOD1 180339Z 22005KT 06/00 A3008 RMK A01 T00580001  RH  067%=      5-min Rain = 0
KOD1 180340Z 22005KT 06/00 A3008 RMK A01 T00570001  RH  067%=      5-min Rain = 0
KOD1 180341Z 22005KT 06/00 A3008 RMK A01 T00570001  RH  067%=      5-min Rain = 0
KOD1 180342Z 22005KT 06/00 A3008 RMK A01 T00570001  RH  067%=      5-min Rain = 0
KOD1 180343Z 22005KT 06/00 A3008 RMK A01 T00560001  RH  068%=      5-min Rain = 0
KOD1 180344Z 22005KT 06/00 A3008 RMK A01 T00560001  RH  068%=      5-min Rain = 0
KOD1 180345Z 22004KT 06/00 A3008 RMK A01 T00550001  RH  068%=      5-min Rain = 0
KOD1 180346Z 22004KT 05/00 A3008 RMK A01 T00540001  RH  068%=      5-min Rain = 0
KOD1 180347Z 22003KT 05/00 A3008 RMK A01 T00540001  RH  069%=      5-min Rain = 0
KOD1 180348Z 22003KT 05/00 A3008 RMK A01 T00540001  RH  069%=      5-min Rain = 0
KOD1 180349Z 22003KT 05/00 A3008 RMK A01 T00540001  RH  069%=      5-min Rain = 0
KOD1 180350Z 23003KT 05/00 A3008 RMK A01 T00540001  RH  069%=      5-min Rain = 0
KOD1 180351Z 24003KT 05/00 A3008 RMK A01 T00540001  RH  069%=      5-min Rain = 0
KOD1 180352Z 24003KT 05/00 A3008 RMK A01 T00540001  RH  068%=      5-min Rain = 0
KOD1 180353Z 24003KT 05/00 A3008 RMK A01 T00540001  RH  068%=      5-min Rain = 0
KOD1 180354Z 23003KT 05/00 A3008 RMK A01 T00540001  RH  068%=      5-min Rain = 0
KOD1 180355Z 22004KT 05/00 A3008 RMK A01 T00540001  RH  068%=      5-min Rain = 0
KOD1 180356Z 22004KT 05/00 A3008 RMK A01 T00540001  RH  068%=      5-min Rain = 0
KOD1 180357Z 22004KT 05/00 A3008 RMK A01 T00540000  RH  068%=      5-min Rain = 0
KOD1 180358Z 22004KT 05/00 A3008 RMK A01 T00540001  RH  068%=      5-min Rain = 0
KOD1 180359Z 22004KT 05/00 A3008 RMK A01 T00540001  RH  068%=      5-min Rain = 0
KOD1 180400Z 22004KT 05/00 A3008 RMK A01 T00540001  RH  069%=      5-min Rain = 0
KOD1 180401Z 22004KT 05/00 A3008 RMK A01 T00540001  RH  069%=      5-min Rain = 0
KOD1 180402Z 22004KT 05/00 A3008 RMK A01 T00540001  RH  069%=      5-min Rain = 0
KOD1 180403Z 22004KT 05/00 A3008 RMK A01 T00540001  RH  069%=      5-min Rain = 0
KOD1 180404Z 22004KT 05/00 A3008 RMK A01 T00540001  RH  069%=      5-min Rain = 0
KOD1 180405Z 22004KT 05/00 A3008 RMK A01 T00540002  RH  069%=      5-min Rain = 0
KOD1 180406Z 22004KT 05/00 A3008 RMK A01 T00540002  RH  069%=      5-min Rain = 0
KOD1 180407Z 22005KT 05/00 A3008 RMK A01 T00540002  RH  069%=      5-min Rain = 0
KOD1 180408Z 22005KT 05/00 A3008 RMK A01 T00530001  RH  069%=      5-min Rain = 0
KOD1 180409Z 22006KT 05/00 A3008 RMK A01 T00530001  RH  069%=      5-min Rain = 0
KOD1 180410Z 22006KT 05/00 A3008 RMK A01 T00530002  RH  069%=      5-min Rain = 0
KOD1 180411Z 22005KT 05/00 A3008 RMK A01 T00540002  RH  069%=      5-min Rain = 0
KOD1 180412Z 22005KT 05/00 A3008 RMK A01 T00530001  RH  069%=      5-min Rain = 0
KOD1 180413Z 22005KT 05/00 A3008 RMK A01 T00530001  RH  069%=      5-min Rain = 0
KOD1 180414Z 22005KT 05/00 A3008 RMK A01 T00520001  RH  069%=      5-min Rain = 0
KOD1 180415Z 22005KT 05/00 A3008 RMK A01 T00520001  RH  070%=      5-min Rain = 0
KOD1 180416Z 22005KT 05/00 A3008 RMK A01 T00520002  RH  070%=      5-min Rain = 0
KOD1 180417Z 22005KT 05/00 A3008 RMK A01 T00520002  RH  070%=      5-min Rain = 0
KOD1 180418Z 22005KT 05/00 A3008 RMK A01 T00530002  RH  070%=      5-min Rain = 0
KOD1 180419Z 21004KT 05/00 A3007 RMK A01 T00530002  RH  070%=      5-min Rain = 0
KOD1 180420Z 21004KT 05/00 A3007 RMK A01 T00540002  RH  069%=      5-min Rain = 0
KOD1 180421Z 21005KT 05/00 A3007 RMK A01 T00540002  RH  069%=      5-min Rain = 0
KOD1 180422Z 21005KT 05/00 A3007 RMK A01 T00540003  RH  069%=      5-min Rain = 0
KOD1 180423Z 21005KT 06/00 A3007 RMK A01 T00550003  RH  069%=      5-min Rain = 0
KOD1 180424Z 21005KT 06/00 A3007 RMK A01 T00560003  RH  069%=      5-min Rain = 0
KOD1 180425Z 21005KT 06/00 A3007 RMK A01 T00560003  RH  069%=      5-min Rain = 0
KOD1 180426Z 21005KT 06/00 A3007 RMK A01 T00560003  RH  069%=      5-min Rain = 0
KOD1 180427Z 21004KT 06/00 A3007 RMK A01 T00560003  RH  069%=      5-min Rain = 0
KOD1 180428Z 22004KT 06/00 A3007 RMK A01 T00560003  RH  068%=      5-min Rain = 0
KOD1 180429Z 21004KT 06/00 A3007 RMK A01 T00570003  RH  068%=      5-min Rain = 0
KOD1 180430Z 22004KT 06/00 A3007 RMK A01 T00570003  RH  068%=      5-min Rain = 0
KOD1 180431Z 21003KT 06/00 A3007 RMK A01 T00580003  RH  068%=      5-min Rain = 0
KOD1 180432Z 21003KT 06/00 A3007 RMK A01 T00580003  RH  068%=      5-min Rain = 0
KOD1 180433Z 21003KT 06/00 A3007 RMK A01 T00580003  RH  068%=      5-min Rain = 0
KOD1 180434Z 21003KT 06/00 A3007 RMK A01 T00580003  RH  068%=      5-min Rain = 0
KOD1 180435Z 21003KT 06/00 A3006 RMK A01 T00590003  RH  067%=      5-min Rain = 0
KOD1 180436Z 21003KT 06/00 A3007 RMK A01 T00590003  RH  067%=      5-min Rain = 0
KOD1 180437Z 21004KT 06/00 A3006 RMK A01 T00600004  RH  067%=      5-min Rain = 0
KOD1 180438Z 21004KT 06/00 A3006 RMK A01 T00610004  RH  067%=      5-min Rain = 0
KOD1 180439Z 21004KT 06/00 A3006 RMK A01 T00620004  RH  066%=      5-min Rain = 0
KOD1 180440Z 21004KT 06/00 A3006 RMK A01 T00630004  RH  066%=      5-min Rain = 0
KOD1 180441Z 21004KT 06/00 A3006 RMK A01 T00640004  RH  065%=      5-min Rain = 0
KOD1 180442Z 21004KT 06/00 A3006 RMK A01 T00640004  RH  065%=      5-min Rain = 0
KOD1 180443Z 21004KT 06/00 A3006 RMK A01 T00640004  RH  065%=      5-min Rain = 0
KOD1 180444Z 21004KT 06/00 A3006 RMK A01 T00630004  RH  066%=      5-min Rain = 0
KOD1 180445Z 22004KT 06/00 A3006 RMK A01 T00620003  RH  066%=      5-min Rain = 0
KOD1 180446Z 22004KT 06/00 A3006 RMK A01 T00620003  RH  066%=      5-min Rain = 0
KOD1 180447Z 22004KT 06/00 A3006 RMK A01 T00610004  RH  066%=      5-min Rain = 0
KOD1 180448Z 22004KT 06/00 A3006 RMK A01 T00610003  RH  067%=      5-min Rain = 0
KOD1 180449Z 22004KT 06/00 A3006 RMK A01 T00610003  RH  067%=      5-min Rain = 0
KOD1 180450Z 21004KT 06/00 A3006 RMK A01 T00610003  RH  066%=      5-min Rain = 0
KOD1 180451Z 21004KT 06/00 A3006 RMK A01 T00610003  RH  066%=      5-min Rain = 0
KOD1 180452Z 21004KT 06/00 A3006 RMK A01 T00620003  RH  066%=      5-min Rain = 0
KOD1 180453Z 21004KT 06/00 A3006 RMK A01 T00610003  RH  066%=      5-min Rain = 0
KOD1 180454Z 21005KT 06/00 A3006 RMK A01 T00610003  RH  066%=      5-min Rain = 0
KOD1 180455Z 21005KT 06/00 A3006 RMK A01 T00610003  RH  066%=      5-min Rain = 0
KOD1 180456Z 21004KT 06/00 A3006 RMK A01 T00600003  RH  067%=      5-min Rain = 0
KOD1 180457Z 20004KT 06/00 A3006 RMK A01 T00590003  RH  067%=      5-min Rain = 0
KOD1 180458Z 20004KT 06/00 A3006 RMK A01 T00590003  RH  067%=      5-min Rain = 0
KOD1 180459Z 21004KT 06/00 A3006 RMK A01 T00580003  RH  068%=      5-min Rain = 0
KOD1 180500Z 21004KT 06/00 A3006 RMK A01 T00580003  RH  068%=      5-min Rain = 0
KOD1 180501Z 21004KT 06/00 A3006 RMK A01 T00580003  RH  068%=      5-min Rain = 0
KOD1 180502Z 21004KT 06/00 A3006 RMK A01 T00580003  RH  068%=      5-min Rain = 0
KOD1 180503Z 21004KT 06/00 A3006 RMK A01 T00590004  RH  068%=      5-min Rain = 0
KOD1 180504Z 21004KT 06/00 A3006 RMK A01 T00600004  RH  067%=      5-min Rain = 0
KOD1 180505Z 21004KT 06/00 A3006 RMK A01 T00600003  RH  067%=      5-min Rain = 0
KOD1 180506Z 21004KT 06/00 A3006 RMK A01 T00600003  RH  067%=      5-min Rain = 0
KOD1 180507Z 21004KT 06/00 A3005 RMK A01 T00600003  RH  067%=      5-min Rain = 0
KOD1 180508Z 21004KT 06/00 A3005 RMK A01 T00600003  RH  067%=      5-min Rain = 0
KOD1 180509Z 21004KT 06/00 A3005 RMK A01 T00600003  RH  067%=      5-min Rain = 0
KOD1 180510Z 21004KT 06/00 A3005 RMK A01 T00600003  RH  067%=      5-min Rain = 0
KOD1 180511Z 21004KT 06/00 A3005 RMK A01 T00600003  RH  067%=      5-min Rain = 0
KOD1 180512Z 21004KT 06/00 A3005 RMK A01 T00600003  RH  067%=      5-min Rain = 0
KOD1 180513Z 21004KT 06/00 A3005 RMK A01 T00600003  RH  067%=      5-min Rain = 0
KOD1 180514Z 21004KT 06/00 A3005 RMK A01 T00600003  RH  067%=      5-min Rain = 0
KOD1 180515Z 21004KT 06/00 A3005 RMK A01 T00600003  RH  067%=      5-min Rain = 0
KOD1 180516Z 21005KT 06/00 A3005 RMK A01 T00600003  RH  067%=      5-min Rain = 0
KOD1 180517Z 21004KT 06/00 A3005 RMK A01 T00590003  RH  067%=      5-min Rain = 0
KOD1 180518Z 21004KT 06/00 A3005 RMK A01 T00590003  RH  067%=      5-min Rain = 0
KOD1 180519Z 21004KT 06/00 A3005 RMK A01 T00580003  RH  068%=      5-min Rain = 0
KOD1 180520Z 21005KT 06/00 A3005 RMK A01 T00580004  RH  068%=      5-min Rain = 0
KOD1 180521Z 21005KT 06/00 A3005 RMK A01 T00570003  RH  069%=      5-min Rain = 0
KOD1 180522Z 21005KT 06/00 A3005 RMK A01 T00550004  RH  069%=      5-min Rain = 0
KOD1 180523Z 21005KT 06/00 A3005 RMK A01 T00550003  RH  070%=      5-min Rain = 0
KOD1 180524Z 21005KT 06/00 A3005 RMK A01 T00550004  RH  069%=      5-min Rain = 0
KOD1 180525Z 21004KT 06/00 A3005 RMK A01 T00550003  RH  069%=      5-min Rain = 0
KOD1 180526Z 21005KT 05/00 A3005 RMK A01 T00540004  RH  070%=      5-min Rain = 0
KOD1 180527Z 21004KT 05/00 A3005 RMK A01 T00540004  RH  070%=      5-min Rain = 0
KOD1 180528Z 21004KT 05/00 A3005 RMK A01 T00540004  RH  070%=      5-min Rain = 0
KOD1 180529Z 21004KT 05/00 A3005 RMK A01 T00540004  RH  070%=      5-min Rain = 0
KOD1 180530Z 21004KT 05/00 A3005 RMK A01 T00540003  RH  070%=      5-min Rain = 0
KOD1 180531Z 21004KT 05/00 A3005 RMK A01 T00540003  RH  069%=      5-min Rain = 0
KOD1 180532Z 21004KT 05/00 A3005 RMK A01 T00540002  RH  069%=      5-min Rain = 0
KOD1 180533Z 21004KT 05/00 A3005 RMK A01 T00540002  RH  069%=      5-min Rain = 0
KOD1 180534Z 21003KT 05/00 A3005 RMK A01 T00540002  RH  069%=      5-min Rain = 0
KOD1 180535Z 21003KT 05/00 A3005 RMK A01 T00540002  RH  069%=      5-min Rain = 0
KOD1 180536Z 21003KT 06/00 A3005 RMK A01 T00550003  RH  069%=      5-min Rain = 0
KOD1 180537Z 21003KT 06/00 A3005 RMK A01 T00550003  RH  069%=      5-min Rain = 0
KOD1 180538Z 21003KT 06/00 A3005 RMK A01 T00560003  RH  069%=      5-min Rain = 0
KOD1 180539Z 21003KT 06/00 A3005 RMK A01 T00560003  RH  069%=      5-min Rain = 0
KOD1 180540Z 21003KT 06/00 A3005 RMK A01 T00560003  RH  068%=      5-min Rain = 0
KOD1 180541Z 22004KT 06/00 A3005 RMK A01 T00560003  RH  068%=      5-min Rain = 0
KOD1 180542Z 22004KT 06/00 A3005 RMK A01 T00570003  RH  068%=      5-min Rain = 0
KOD1 180543Z 21004KT 06/00 A3005 RMK A01 T00580003  RH  068%=      5-min Rain = 0
KOD1 180544Z 21004KT 06/00 A3005 RMK A01 T00580003  RH  068%=      5-min Rain = 0
KOD1 180545Z 21004KT 06/00 A3005 RMK A01 T00590003  RH  068%=      5-min Rain = 0
KOD1 180546Z 22004KT 06/00 A3005 RMK A01 T00580003  RH  068%=      5-min Rain = 0
KOD1 180547Z 22004KT 06/00 A3005 RMK A01 T00580003  RH  068%=      5-min Rain = 0
KOD1 180548Z 22004KT 06/00 A3005 RMK A01 T00570002  RH  068%=      5-min Rain = 0
KOD1 180549Z 22004KT 06/00 A3005 RMK A01 T00550002  RH  068%=      5-min Rain = 0
KOD1 180550Z 21004KT 05/00 A3005 RMK A01 T00540002  RH  069%=      5-min Rain = 0
KOD1 180551Z 22004KT 05/00 A3005 RMK A01 T00530001  RH  069%=      5-min Rain = 0
KOD1 180552Z 22004KT 05/00 A3005 RMK A01 T00520001  RH  070%=      5-min Rain = 0
KOD1 180553Z 22003KT 05/00 A3005 RMK A01 T00510001  RH  070%=      5-min Rain = 0
KOD1 180554Z 22003KT 05/00 A3004 RMK A01 T00510002  RH  070%=      5-min Rain = 0
KOD1 180555Z 22003KT 05/00 A3004 RMK A01 T00510002  RH  071%=      5-min Rain = 0
KOD1 180556Z 22003KT 05/00 A3004 RMK A01 T00500002  RH  071%=      5-min Rain = 0
KOD1 180557Z 22003KT 05/00 A3004 RMK A01 T00500002  RH  071%=      5-min Rain = 0
KOD1 180558Z 22003KT 05/00 A3004 RMK A01 T00500002  RH  071%=      5-min Rain = 0
KOD1 180559Z 22003KT 05/00 A3004 RMK A01 T00500002  RH  071%=      5-min Rain = 0

Page generated in 0.0833 seconds.